[{"header": {"dx": 0.06612293990616946, "dy": 0.0552356325346848, "nx": 98, "ny": 59, "la1": 35.046912555036876, "la2": 31.78801023549047, "lo1": -121.43107172385933, "lo2": -114.95102361305473, "refTime": "2026040811", "parameterCategory": 1, "parameterNumber": 2}, "data": [7.53, 7.23, 7.23, 7.46, 7.25, 7.13, 6.88, 7.5, 7.93, 7.92, 7.13, 5.4, 2.37, -2.1, -5.06, -6.01, -7.56, -7.81, -7.28, -6.79, -7.06, -7.15, -6.36, -5.75, -5.24, -5.01, -5.6, -6.26, -6.26, -6.26, -0.0, 3.79, 3.79, 4.46, 5.2, 5.81, 6.26, 6.58, 6.36, 7.15, 5.06, 7.63, 9.83, 9.96, 10.8, 11.44, 14.07, 13.76, 13.15, 12.26, 10.04, 5.0, 3.39, 5.29, 5.7, 6.58, 7.27, 8.37, 9.1, 9.6, 9.63, 9.55, 9.83, 6.64, 6.7, 5.72, 6.4, 7.12, 8.14, 10.25, 11.36, 9.68, 8.87, 8.05, 8.05, 8.24, 8.56, 10.73, -8.22, -9.64, -5.81, -4.77, -4.92, -4.09, -1.55, -2.53, 4.92, 5.81, 5.36, 6.79, 7.03, 7.06, 7.02, 7.02, 7.06, 6.39, 6.44, 6.44, 7.53, 7.53, 7.23, 7.23, 7.25, 7.58, 7.36, 7.74, 7.73, 8.18, 7.2, 6.9, 6.97, 4.8, 0.0, -5.46, -6.32, -8.03, -7.33, -6.6, -7.81, -7.97, -7.6, -7.06, -4.89, -4.74, -5.36, -6.0, -6.71, -6.71, -6.71, -0.0, -0.0, 1.41, 3.76, 5.37, 7.08, 7.15, 7.45, 7.21, 7.63, 9.54, 9.58, 9.42, 10.18, 12.45, 14.08, 13.07, 12.45, 10.94, 10.4, 2.6, 6.17, 5.46, 4.88, 5.98, 6.69, 7.81, 9.1, 9.38, 9.4, 9.21, 8.72, 6.64, 5.69, 5.93, 6.6, 7.12, 8.06, 9.33, 10.68, 10.41, 9.32, 8.49, 8.05, 8.41, 9.11, 10.73, -8.22, -9.64, -5.81, -4.77, -4.92, -4.09, -1.55, -2.53, 4.92, 5.81, 5.36, 6.79, 7.03, 7.06, 7.02, 7.02, 7.06, 6.39, 6.44, 6.44, 7.23, 7.23, 7.23, 7.23, 7.46, 7.48, 7.82, 8.18, 8.22, 8.4, 6.31, 4.92, 5.98, 7.9, 6.95, 6.95, -2.39, -5.46, -7.27, -7.68, -6.55, -8.15, -8.63, -7.94, -8.05, -5.75, -4.74, -5.36, -6.94, -7.37, -6.8, -7.6, -6.79, -3.2, 2.8, 6.8, 6.88, 7.97, 8.41, 8.0, 6.95, 7.72, 8.95, 10.43, 12.02, 12.67, 13.2, 11.29, 10.12, 4.8, -0.0, 4.4, 5.06, 4.4, 4.66, 5.72, 6.95, 7.81, 8.72, 9.4, 9.4, 8.8, 7.81, 6.32, 5.69, 5.49, 6.44, 7.03, 7.82, 8.63, 9.74, 10.43, 10.68, 9.39, 8.48, 8.38, 9.83, 12.03, 5.4, -10.73, -6.71, -5.81, -3.79, -3.79, -3.83, -3.6, -4.47, 5.81, 5.81, 7.2, 8.88, 8.3, 7.27, 6.95, 6.64, 6.11, 5.82, 5.82, 7.23, 7.23, 7.46, 7.23, 7.46, 7.69, 7.71, 8.06, 8.43, 7.74, 6.56, 4.8, 4.58, 4.6, 5.29, 6.17, 6.17, 0.0, -6.87, -8.37, -7.44, -6.52, -8.15, -8.24, -7.71, -8.49, -6.64, -5.95, -6.4, -7.37, -5.69, -6.98, -7.6, -8.24, 8.05, 8.05, 8.94, 9.7, 9.55, 9.08, 9.36, 10.05, 10.47, 9.95, 10.15, 10.04, 9.59, 9.6, 8.8, 4.83, 5.59, 5.63, 4.83, 3.7, 4.66, 5.46, 6.95, 8.0, 8.99, 9.4, 9.33, 8.8, 7.21, 5.72, 5.24, 5.37, 6.44, 6.98, 7.61, 8.86, 10.28, 11.62, 11.76, 9.83, 6.32, 6.64, 8.99, 12.3, 12.45, -9.96, -5.64, -3.72, -4.22, -4.52, -4.73, -4.82, -3.79, 3.79, 5.93, 8.68, 9.92, 8.68, 6.95, 6.64, 6.18, 6.0, 6.02, 5.59, 7.23, 7.23, 7.46, 7.46, 7.46, 7.69, 7.93, 8.26, 8.61, 7.93, 6.21, 4.87, 4.4, 3.25, 3.25, 2.95, 4.8, 5.75, -3.53, -8.49, -9.32, -8.0, -7.21, -7.81, -7.47, -7.95, -8.33, -8.06, -6.01, -3.4, -3.15, -5.46, -5.9, -4.6, 0.0, 4.8, 5.95, 7.85, 10.12, 10.33, 10.05, 10.05, 9.32, 10.41, 11.13, 10.96, 10.28, 9.11, 7.37, 7.07, 6.98, 6.32, 4.6, 4.0, 5.21, 6.64, 7.64, 8.0, 8.6, 9.13, 9.33, 8.54, 6.01, 5.53, 5.59, 6.68, 6.44, 5.37, 5.94, 8.3, 10.48, 12.56, 12.14, 11.03, 7.47, 2.21, 5.63, 8.63, 11.91, -7.9, -4.52, -4.4, -4.52, -5.86, -4.93, -3.84, 0.0, 5.06, 6.95, 9.27, 9.3, 7.69, 7.06, 5.24, 5.6, 6.26, 6.2, 6.55, 7.23, 7.23, 7.46, 7.46, 7.46, 7.69, 7.93, 7.93, 8.26, 7.58, 6.21, 4.12, 4.6, 5.29, 4.8, 2.82, 2.95, 5.0, 1.64, -7.02, -9.69, -8.3, -9.1, -8.8, -7.76, -7.28, -6.87, -4.6, -1.75, 0.0, 1.67, 0.0, -2.58, -2.34, 0.0, 1.41, 2.53, 7.01, 9.87, 9.62, 7.0, 6.65, 8.73, 11.18, 11.14, 11.15, 10.7, 9.83, 9.34, 9.29, 8.48, 7.67, 5.59, 4.6, 5.86, 7.21, 7.21, 8.15, 8.6, 9.24, 9.42, 7.81, 5.72, 5.69, 6.06, 7.06, 6.44, 5.46, 5.49, 7.42, 10.25, 11.18, 11.5, 11.5, 11.13, 6.52, 2.64, 3.47, 5.51, -6.64, -4.12, -4.75, -5.09, -5.09, -4.43, -1.84, 0.85, 4.4, 7.44, 7.52, 6.64, 8.03, 6.28, -6.26, -6.26, 5.81, 5.86, 7.71, 7.23, 7.23, 7.23, 7.46, 7.69, 7.93, 8.12, 8.43, 7.93, 7.11, 5.26, 3.75, 5.29, 6.17, 8.22, 5.29, 3.53, 4.58, 5.4, 0.0, -7.82, -9.24, -9.11, -8.72, -7.69, -6.44, -5.55, -3.41, -3.08, -2.17, 0.0, 4.0, 6.64, 1.33, 0.71, 0.0, 1.61, 5.55, 8.23, 7.44, 3.68, 0.0, 3.44, 9.62, 10.94, 11.18, 11.4, 10.25, 9.83, 10.28, 9.83, 8.3, 6.64, 4.83, 5.86, 7.33, 7.81, 8.15, 9.21, 9.49, 8.99, 7.81, 6.98, 6.32, 5.24, 5.82, 6.44, 6.99, 7.06, 7.11, 9.39, 9.39, 9.26, 11.05, 11.95, 11.18, 5.37, 2.2, 4.92, 4.11, -2.88, -3.09, -3.6, -3.6, -2.35, 0.0, 2.28, 3.91, 4.8, 5.28, 6.17, 5.1, -6.26, -6.26, 0.0, 4.89, 7.2, 7.6, 6.99, 7.23, 7.46, 7.39, 7.62, 7.93, 8.12, 8.12, 7.69, 6.57, 5.05, 3.37, 3.82, 7.9, 11.21, 9.96, 9.08, 8.85, 8.85, 10.19, 10.73, 0.0, -5.2, -7.36, -5.96, -4.38, -4.21, -5.5, -6.44, -6.5, -5.52, 0.0, 2.37, 5.2, 3.53, 1.55, 0.74, 2.41, 5.46, 6.45, 3.68, 1.23, 2.2, 4.34, 6.64, 7.65, 7.67, 9.49, 9.79, 10.2, 8.82, 9.21, 4.83, 5.21, 6.01, 7.21, 7.64, 8.4, 8.58, 9.42, 8.91, 8.91, 7.47, 4.74, 3.4, 5.69, 8.24, 8.49, 7.15, 7.08, 8.01, 8.45, 9.26, 10.93, 10.93, 10.7, 9.32, 5.2, 5.59, 9.83, 6.87, -1.32, -2.01, -1.33, 0.0, 1.41, 3.11, 3.53, 3.51, 3.81, 1.39, -4.66, -5.81, -6.14, 1.63, 4.43, 7.32, 7.28, 6.94, 7.17, 7.17, 7.39, 7.62, 8.12, 7.82, 7.82, 7.17, 6.35, 4.8, 3.25, 1.83, 4.1, 6.21, 9.77, 9.77, 10.55, 10.55, 11.2, 12.27, 12.71, 11.12, 0.0, -4.08, -5.2, -5.06, -7.95, -9.8, -6.45, -3.47, -1.11, 0.0, 3.06, 3.53, 3.06, 1.18, 1.07, 2.39, 3.61, 3.39, 3.06, 4.38, 3.41, 2.37, 1.63, 3.39, 6.3, 7.81, 8.8, 9.33, 8.0, 4.83, 5.21, 6.64, 7.13, 7.96, 8.58, 8.72, 8.99, 9.21, 8.38, 4.43, -4.22, -0.0, 6.32, 8.67, 9.39, 8.05, 7.45, 7.97, 8.8, 10.49, 11.09, 10.32, 8.89, 7.52, 7.85, 10.25, 12.05, 12.9, 0.0, 0.0, 0.0, 0.72, 1.45, 3.02, 3.3, 0.0, -3.93, -4.47, -4.92, -5.51, -3.76, 1.98, 4.43, 7.06, 6.7, 7.17, 6.89, 7.11, 7.59, 7.82, 7.82, 7.82, 7.82, 7.17, 5.86, 4.95, 4.84, 4.02, 2.72, 3.12, 4.58, 6.4, 7.59, 6.4, 5.11, 4.65, 6.44, 9.48, 10.37, -2.71, -6.64, -6.01, -7.59, -8.91, -4.28, 0.0, 0.0, 0.0, 0.0, 0.0, 1.47, 4.75, 3.77, 2.69, 3.11, 2.1, 2.61, 2.82, 4.74, 1.63, 0.0, 0.89, 2.49, 6.15, 7.21, 7.63, 4.71, 4.6, 6.32, 7.13, 7.51, 8.4, 8.82, 9.06, 9.24, 8.46, 7.6, -0.0, -4.6, -0.0, 5.69, 7.4, 8.14, 7.94, 7.89, 8.17, 9.58, 11.28, 11.28, 10.18, 9.35, 8.67, 8.29, 9.28, 11.6, 12.96, 12.75, 1.2, 0.95, 1.72, 1.98, 3.0, 3.63, 4.8, -3.16, -3.9, -5.26, -3.35, -1.03, 1.72, 4.36, 6.35, 5.72, 7.17, 6.89, 7.59, 7.59, 7.32, 7.54, 7.54, 7.59, 6.94, 6.08, 5.86, 6.07, 6.8, 5.63, 3.47, 3.0, 4.42, 5.02, 5.25, 4.58, 3.47, 1.37, 3.39, 6.0, 0.0, -6.32, -5.98, -5.1, -6.87, -3.76, 1.11, 2.54, 0.0, -2.82, -2.44, 0.0, 5.43, 6.3, 3.68, 6.8, 0.0, 0.0, -0.0, -0.0, -0.0, 0.0, -1.49, -1.25, -2.99, -6.7, -8.49, -0.0, 6.79, 6.98, 7.28, 7.82, 8.82, 9.11, 9.36, 8.94, 8.94, 7.6, -0.0, -4.83, -0.0, 5.69, 6.82, 7.35, 7.31, 8.05, 8.91, 9.68, 11.03, 10.75, 10.45, 10.6, 8.72, 7.64, 7.81, 10.15, 11.75, 12.42, 11.28, 5.06, 7.2, 5.7, 6.61, 6.64, 5.81, 4.92, 4.47, -1.41, -1.83, -0.82, 1.72, 3.9, 5.0, 4.65, 7.17, 6.89, 7.36, 7.59, 7.32, 7.32, 7.54, 7.59, 6.94, 6.04, 6.3, 6.51, 7.46, 7.77, 7.25, 5.6, 4.65, 4.95, 5.17, 5.56, 4.4, 3.25, 2.28, 2.82, 2.26, -2.12, -3.47, -2.53, -3.48, -1.1, 0.0, 6.71, -1.52, -5.36, -1.45, 0.0, 1.14, 0.0, -8.05, -3.8, -4.46, -4.46, -0.0, 2.4, -0.0, -6.26, -7.15, -7.15, -7.6, -8.05, -6.32, 0.0, 8.05, 7.89, 8.17, 8.06, 8.63, 9.11, 9.39, 9.34, 8.56, 8.77, -5.63, -6.32, -0.0, 5.69, 6.08, 7.67, 8.06, 8.05, 8.63, 9.6, 10.1, 9.85, 9.85, 10.84, 10.08, 8.34, 8.03, 9.21, 9.3, 9.54, 9.79, 8.4, 8.24, 8.49, 8.85, 9.76, 8.05, 6.71, 4.87, 3.74, 0.98, 0.0, 2.64, 3.64, 3.9, 3.55, 7.17, 6.89, 7.36, 7.59, 7.32, 7.32, 7.32, 7.36, 6.89, 6.25, 6.25, 6.94, 7.17, 8.18, 9.95, 10.31, 8.87, 6.53, 4.95, 5.33, 4.92, 4.2, 3.6, 2.6, 3.49, 3.48, -3.16, -2.41, -2.23, -3.13, -4.47, -5.01, -3.22, -1.41, 4.11, 6.71, 6.71, -6.8, -6.8, -7.2, -8.05, -5.95, 0.0, 4.11, 2.4, -2.95, -4.11, -5.75, -7.2, -4.83, -3.2, -2.09, 0.0, 2.69, 7.51, 8.3, 7.6, 7.97, 7.98, 8.49, 8.0, 0.0, -8.3, -8.0, -0.0, 5.37, 5.24, 5.49, 6.32, 6.8, 7.15, 7.52, 7.31, 7.81, 8.99, 10.6, 10.73, 9.2, 8.68, 7.96, 6.35, 6.44, 9.2, 10.32, 7.94, 8.41, 10.41, 9.63, 8.24, 8.49, 6.71, 4.87, 3.95, 3.22, 3.72, 4.29, 4.29, 3.0, 7.17, 7.36, 7.36, 7.36, 7.32, 7.32, 7.32, 6.89, 6.89, 6.68, 6.68, 7.17, 7.88, 8.12, 9.61, 10.98, 11.88, 10.43, 8.66, 6.94, 5.75, 6.2, 7.14, 6.98, 4.46, 0.0, -4.77, -4.11, -5.08, -5.81, -4.8, -5.09, -6.79, -2.8, 3.0, 3.0, -0.0, 7.6, -7.6, -7.6, -4.22, -2.12, 0.0, 2.23, 2.12, -1.23, -2.29, -4.21, -3.35, -3.6, -2.46, -1.11, 0.0, 1.11, 2.23, 2.31, 2.49, 6.58, 7.15, 5.94, 0.0, -6.64, -8.48, -7.07, -3.97, 0.0, 6.26, 3.47, 4.22, 2.8, 2.12, -0.0, 3.0, 6.26, 7.31, 9.55, 8.8, 7.07, 7.41, 6.79, 4.29, 5.21, 8.87, 10.19, 8.6, 9.4, 10.21, 9.2, 7.21, 6.71, 6.71, 5.36, 5.31, 5.09, 5.21, 5.58, 5.37, 4.02, 7.17, 7.36, 7.36, 7.36, 7.1, 7.32, 7.32, 7.59, 6.89, 6.89, 6.89, 7.36, 7.88, 8.58, 9.55, 10.94, 11.38, 11.82, 10.75, 10.01, 8.73, 8.37, 9.17, 9.69, 7.24, 0.0, -6.94, -4.47, -4.8, -5.24, -4.8, -3.98, -6.26, -7.15, 7.15, 7.6, 0.0, -5.37, -8.49, -5.06, 0.0, 0.0, 0.99, 1.0, 0.0, 0.0, 0.0, -2.12, -2.12, -3.35, -2.28, 0.0, 2.13, 0.94, 0.0, 0.0, 0.0, 2.0, 4.24, 5.06, -8.05, -4.46, -3.91, -2.4, -2.4, -2.66, -2.12, 6.71, 4.43, 1.73, -0.0, -0.0, -0.0, 1.84, 5.94, 7.06, 7.2, 6.99, 6.44, 6.7, 5.37, 4.58, 7.33, 8.88, 8.43, 7.68, 9.1, 9.75, 7.6, 7.6, 7.15, 6.66, 6.07, 5.16, 6.2, 6.23, 4.11, 4.11, 7.17, 7.36, 7.36, 7.36, 7.36, 7.1, 7.1, 7.59, 7.11, 6.89, 7.36, 7.59, 8.04, 8.28, 9.55, 10.25, 11.03, 11.06, 11.44, 11.14, 10.43, 10.12, 10.52, 10.63, 9.64, 5.99, 0.0, -6.4, -5.81, -4.92, -3.97, -3.39, -2.8, -5.06, -0.0, 6.71, -6.8, -7.6, -8.05, -5.37, 0.0, 1.63, 0.0, 0.0, 6.71, -0.0, -0.0, 7.15, 0.0, 0.0, 0.0, 1.18, 3.2, 4.74, 0.0, 0.0, 1.1, 2.66, 7.2, 8.49, 8.05, 0.0, 0.0, -1.4, -1.96, -2.26, -2.32, 0.0, -0.0, -0.0, -1.18, -1.1, -0.0, 2.26, 7.6, 8.05, 8.94, 8.67, 8.0, 7.07, 8.48, 7.2, 6.36, 7.21, 7.85, 5.7, 6.9, 8.49, 6.94, 6.17, 7.6, 5.64, 5.09, 6.07, 7.42, 5.75, 4.54, 4.54, 7.17, 7.36, 7.36, 7.13, 7.36, 7.1, 7.1, 7.59, 7.59, 7.59, 7.59, 7.59, 8.04, 8.72, 8.97, 9.97, 10.39, 10.42, 10.75, 11.11, 11.15, 10.81, 10.82, 10.31, 10.73, 10.18, 10.09, 10.96, 9.83, 8.49, 7.15, -2.6, -2.48, -3.2, -1.84, -6.0, -6.71, -7.15, 6.71, 0.0, 0.0, -1.7, -4.74, 0.0, 8.05, -0.0, -0.0, 7.6, 5.06, 5.06, 7.15, 7.15, -0.0, -0.0, -0.0, 7.6, 7.2, 8.49, 8.94, 9.39, 8.94, 6.01, 7.6, 7.15, 0.0, 0.0, 0.0, 0.0, 7.6, -0.0, -3.2, -6.71, 7.15, 7.6, -8.05, -3.8, -0.0, -0.0, 10.28, 9.39, 8.94, 8.49, 7.94, 6.98, 7.45, 6.17, 5.09, 4.34, 5.36, 6.65, 9.49, 7.37, 5.6, 6.21, 7.76, 6.21, 4.11, 4.11, 7.64, 7.36, 7.36, 7.13, 7.13, 7.36, 7.1, 7.36, 7.59, 7.59, 7.59, 8.04, 8.04, 8.72, 8.72, 9.14, 10.1, 10.44, 10.42, 10.77, 10.47, 10.76, 10.73, 10.61, 11.72, 13.01, 13.15, 12.81, 12.47, 11.55, 9.39, 6.4, -0.0, -0.76, -1.33, -2.98, -3.79, 6.26, 0.0, 0.0, 0.0, -3.2, -5.06, -2.4, 0.0, 8.49, 8.49, 8.05, -0.0, -0.0, 3.6, 3.6, 3.4, -0.0, 8.05, 8.05, 8.49, 6.32, 8.94, 8.94, 8.94, 6.01, 5.69, -0.0, -0.0, -0.0, 6.26, 0.0, 0.0, 0.0, -5.37, -4.22, -4.71, -6.32, -9.11, -6.32, -0.0, 2.39, 4.4, -0.0, 5.06, 6.71, 6.51, 6.28, 6.57, 6.13, 6.32, 5.81, 6.36, 6.8, 8.91, 7.81, 6.16, 6.18, 6.44, 5.58, 4.54, 4.54, 7.36, 7.36, 7.13, 7.13, 7.13, 7.13, 7.36, 7.1, 7.59, 7.59, 7.59, 8.04, 8.04, 8.46, 8.46, 9.94, 9.5, 10.44, 10.09, 10.37, 11.26, 12.27, 11.09, 11.35, 11.6, 13.81, 11.18, 13.7, 12.72, 11.35, 10.28, 5.69, -0.0, -0.99, -1.88, -2.51, -3.16, -4.0, -6.0, -3.6, -3.2, -7.6, -7.6, -7.6, -8.49, -8.49, -0.0, 8.49, -0.0, -0.0, 6.01, 5.69, 5.69, -0.0, 5.69, 8.49, 8.49, 8.94, 8.94, 8.94, 8.94, 8.49, -0.0, -0.0, -1.63, -1.98, 6.71, 4.29, 4.75, 6.32, 9.33, 9.96, 11.84, 8.53, -7.9, -10.28, -0.0, 8.91, 8.67, 7.63, 6.71, 6.26, 5.6, 5.24, 6.18, 5.53, 5.86, 7.15, 8.73, 6.95, 6.55, 7.6, 6.82, 5.37, 5.06, 5.15, 4.43, 4.43, 7.36, 7.36, 7.13, 7.13, 7.13, 7.13, 7.36, 7.1, 7.76, 7.59, 8.04, 8.04, 8.18, 8.46, 8.46, 8.49, 9.14, 8.86, 8.01, 9.64, 13.71, 13.23, 11.72, 12.11, 9.87, 11.03, 12.0, 10.79, 11.31, 10.38, 6.95, -0.0, -2.8, -2.84, -2.15, -2.68, -3.83, -4.8, -5.81, -6.26, -6.71, -4.74, -0.0, -2.6, -4.11, -8.49, -8.49, -0.0, -0.0, -0.0, -0.0, -0.0, -0.0, -0.0, 5.06, 7.2, 8.94, 8.05, 8.49, 9.39, 8.49, -0.0, -5.69, -5.37, -2.8, -4.43, 6.71, 5.95, 7.21, 8.38, 9.46, 11.21, 13.29, 13.86, 12.33, 8.53, 5.75, 6.17, 6.7, 7.15, 6.71, 7.15, 6.71, 5.2, 5.01, 4.74, 4.01, 3.72, 7.9, 5.36, 3.77, 6.32, 7.41, 4.95, 3.79, 4.29, 4.65, 4.65, 7.4, 7.36, 7.13, 7.13, 7.13, 7.13, 7.36, 7.53, 7.76, 7.76, 8.04, 8.04, 8.18, 8.46, 9.12, 9.12, 9.49, 8.22, 7.22, 8.85, 11.48, 12.36, 12.36, 11.09, 10.75, 10.43, 10.12, 9.62, 8.15, 0.0, -5.37, -4.43, -3.48, -2.8, -3.2, -3.95, -4.38, -4.82, -5.2, -6.07, -6.0, -4.74, -2.8, -2.6, -4.8, -8.05, -8.05, -6.01, -0.0, -0.0, -0.0, -0.0, -0.0, -0.0, 5.69, 6.8, 8.24, 8.24, 9.39, 8.49, 8.49, -0.0, -5.69, -5.37, -6.26, -6.26, -6.26, 6.71, 6.32, 5.03, 6.32, 9.43, 12.21, 12.93, 11.62, 6.7, 4.72, 4.4, 3.49, 0.0, 5.06, 6.71, 5.6, -0.0, -0.0, 5.36, 0.0, 2.6, 5.2, 5.58, 4.94, 6.04, 7.68, 4.95, 2.72, 3.2, 3.72, 3.72, 7.4, 7.13, 7.13, 7.13, 7.13, 7.13, 7.55, 7.8, 7.76, 7.76, 8.04, 8.04, 8.18, 8.46, 8.57, 9.49, 9.49, 8.86, 8.22, 8.75, 10.3, 10.65, 11.06, 11.06, 11.06, 11.41, 11.2, 9.8, 5.98, 0.0, -3.16, -2.84, -4.02, -3.6, -4.24, -4.92, -4.92, -5.36, -5.36, -5.51, -5.51, -4.11, -3.79, -4.8, -4.4, -5.36, -8.49, -5.69, -5.69, -0.0, -0.0, -0.0, -0.0, -0.0, 5.37, 5.69, 5.69, 6.01, 8.94, 8.49, -0.0, -2.4, -2.4, -6.8, -7.15, -6.71, -6.26, -6.71, -0.0, 1.95, 5.36, 8.03, 8.54, 5.36, 1.84, 2.51, 4.33, 4.48, 2.71, 0.0, 0.0, 6.71, 4.43, -0.0, -2.8, -5.94, -5.51, 0.0, 5.06, 7.76, 7.61, 6.92, 7.27, 4.95, 2.11, 2.11, 2.29, 2.29, 7.4, 7.4, 7.13, 7.13, 7.13, 7.13, 7.55, 7.8, 8.18, 7.76, 8.28, 8.28, 8.18, 8.46, 8.85, 9.49, 9.84, 9.21, 8.86, 9.5, 10.69, 11.06, 9.78, 9.78, 10.4, 11.09, 11.11, 10.65, 7.9, 5.69, 7.15, 5.81, 4.92, -4.92, -4.92, -5.36, -5.81, -5.81, -5.81, -5.51, -4.46, -4.46, -4.46, -4.09, -4.24, -4.66, -7.2, -6.8, -5.06, -5.06, -0.0, -0.0, -0.0, -0.0, -0.0, -0.0, -0.0, -0.0, 8.94, 7.15, -0.0, -0.0, -0.0, -0.0, -5.06, -4.74, 6.26, 6.26, 6.71, 7.15, 8.05, 8.49, -0.0, -0.0, 0.0, 0.89, 3.82, 4.15, 3.61, 0.0, -1.63, 0.0, 6.71, 7.15, 7.15, -6.71, -2.12, 0.0, 3.99, 6.64, 8.24, 7.55, 7.22, 3.79, 1.27, 1.83, 2.98, 2.98, 7.4, 7.4, 7.13, 7.13, 7.13, 7.55, 7.55, 7.8, 8.46, 8.18, 8.72, 8.72, 8.72, 8.46, 9.12, 9.22, 9.5, 9.5, 9.21, 10.13, 11.05, 11.36, 10.73, 9.8, 9.8, 10.43, 10.78, 10.12, 9.08, 7.68, 8.91, 8.05, 7.15, 6.26, 6.26, -6.26, -6.71, -6.71, -6.26, -5.94, -4.84, -4.46, -4.4, -4.4, -4.0, -4.38, -6.8, -6.8, -5.37, -5.69, -6.01, -0.0, -0.0, -0.0, -0.0, -0.0, -0.0, -6.71, 8.05, 7.15, 5.81, 7.15, 7.6, 7.15, -0.0, -0.0, 7.15, 8.49, 7.6, 7.6, 0.0, 2.6, 6.71, 5.81, 0.0, 0.0, 2.82, 4.83, 4.6, 2.4, 0.0, 0.0, 0.0, 0.0, 0.0, 0.0, 0.0, 0.89, 2.82, 3.9, 6.64, 4.29, 3.22, 3.72, 3.6, 3.48, 3.15, 3.15, 7.4, 7.4, 7.4, 7.4, 7.16, 7.31, 7.55, 7.8, 8.2, 8.46, 8.72, 8.72, 8.72, 8.72, 9.42, 9.79, 9.21, 9.21, 9.21, 10.13, 10.75, 11.63, 11.33, 11.04, 10.41, 10.13, 10.12, 9.8, 8.85, 8.94, 8.93, 9.13, 8.67, 6.8, 5.06, 7.15, -7.6, -7.6, -7.15, -6.26, -5.51, -4.46, -4.4, -4.57, -4.57, -4.85, -5.73, -6.61, -6.64, -5.72, -5.36, -6.01, -5.37, -0.0, -0.0, -0.0, -0.0, -4.11, -7.15, 6.71, 5.81, 4.92, 5.81, 5.36, -0.0, -0.0, 8.49, 8.49, 8.05, 0.0, 3.6, 5.37, 6.64, 6.71, 5.81, 5.81, 5.2, 4.74, 6.44, 5.59, 3.45, 1.23, 0.0, 0.0, 0.0, 0.0, 0.0, 0.0, 1.96, 2.47, 2.8, 5.37, 4.65, 5.2, 4.57, 4.09, 4.12, 4.12, 7.4, 7.4, 7.16, 7.16, 7.57, 7.57, 7.55, 8.2, 8.46, 8.46, 8.85, 8.72, 8.72, 8.97, 9.69, 9.79, 9.5, 9.5, 9.8, 10.44, 11.06, 11.66, 11.63, 11.58, 11.36, 10.47, 10.18, 9.48, 8.85, 8.69, 9.3, 9.6, 9.04, 8.3, 6.7, 5.69, 0.0, -7.2, -7.6, -7.15, -6.26, -5.51, -5.2, -5.26, -5.29, -5.29, -5.73, -6.61, -6.79, -6.13, -5.59, -4.43, -3.4, -3.4, -3.4, -3.4, -3.2, -0.0, 6.71, 0.0, 0.0, 7.15, -0.0, -0.0, -0.0, 8.49, -0.0, -0.0, -7.15, 0.0, 3.4, 5.63, 6.99, 7.1, 7.15, 8.24, 8.24, 6.45, 5.59, 5.93, 5.06, 3.22, 0.0, -5.94, -4.74, -2.26, 0.0, 0.0, 0.0, -1.23, -1.98, 5.21, 5.75, 5.6, 4.52, 4.8, 4.27, 4.27, 7.16, 7.16, 7.16, 7.57, 7.57, 7.83, 7.83, 7.8, 8.46, 8.85, 8.85, 9.12, 9.12, 9.39, 9.69, 9.79, 9.5, 9.8, 9.8, 10.44, 10.74, 11.37, 11.63, 11.58, 11.88, 11.72, 10.51, 9.48, 8.85, 8.69, 8.73, 8.03, 8.06, 8.21, 7.28, 6.63, 5.1, 2.69, 0.0, -5.37, -7.15, -6.26, -5.81, -5.36, -5.81, -5.81, -5.73, -5.94, -6.23, -5.75, -5.24, -4.43, -4.11, -3.48, -4.43, -4.74, -5.37, -4.74, 6.26, 6.71, 0.0, 7.6, 5.69, 4.11, 8.94, 8.49, 8.94, 7.6, -5.37, 0.0, 1.84, 4.14, 6.01, 7.4, 5.81, 7.12, 6.16, 6.26, 5.06, 4.47, 5.06, 2.16, -5.09, -5.4, -6.26, -3.47, -1.49, -1.84, -3.2, -4.02, -3.76, 0.0, 4.89, 4.74, 5.09, 4.37, 4.66, 4.66, 7.16, 7.16, 7.16, 7.57, 7.57, 7.83, 7.83, 8.2, 8.46, 8.85, 8.85, 9.12, 9.12, 9.39, 9.39, 9.69, 9.5, 9.5, 10.1, 10.74, 11.06, 11.05, 11.05, 11.63, 11.58, 11.73, 11.2, 10.54, 9.17, 8.53, 8.73, 8.03, 7.33, 7.32, 7.44, 7.28, 6.32, 5.1, 2.06, 0.0, -5.37, -6.71, -5.81, -5.81, -6.26, -6.26, -6.71, -6.36, -6.23, -5.37, -4.89, -4.54, -3.79, -3.48, -3.48, -4.43, -5.37, -5.06, -0.0, 6.71, -7.15, -8.05, -0.0, 5.37, 6.32, 9.83, 8.49, 8.05, 0.0, 0.0, 1.95, 4.14, 4.71, 4.96, 6.52, 4.47, 5.64, 6.71, 2.12, 3.45, 4.19, 0.0, -4.6, -3.58, -4.66, -4.8, -3.91, -5.59, -5.72, -4.29, -3.2, 0.0, 3.91, 3.72, 4.01, 4.11, 4.75, 4.75, 7.16, 7.16, 7.16, 7.57, 7.57, 7.83, 7.83, 8.2, 8.46, 8.46, 8.85, 9.49, 9.49, 9.77, 9.39, 9.69, 9.79, 9.5, 9.79, 10.43, 11.06, 11.05, 11.05, 11.03, 11.58, 11.06, 11.15, 10.51, 9.92, 8.97, 8.73, 8.03, 7.33, 6.98, 7.06, 6.73, 6.79, 6.32, 4.6, 2.06, 0.0, -4.74, -5.81, -6.36, -6.4, -6.26, -5.81, -6.07, -5.6, -5.75, -4.43, -3.79, -3.07, -3.07, -3.48, -2.79, -3.0, -3.2, -2.8, -6.71, -6.71, -7.6, -7.15, 8.05, 9.39, -0.0, 6.32, 8.05, 7.6, -3.6, 0.0, 6.9, 7.07, 5.2, 4.2, 3.52, 1.98, 0.0, 0.0, 3.49, 3.49, 0.0, -4.43, -3.07, -2.0, -4.0, -4.46, -4.43, -2.49, -1.32, 0.0, 0.0, 1.52, 3.47, 3.11, 3.64, 4.43, 4.43, 7.16, 7.16, 7.16, 7.57, 7.57, 7.83, 7.83, 8.49, 8.46, 8.46, 8.46, 9.22, 9.49, 9.77, 9.77, 9.77, 10.08, 9.79, 9.84, 10.13, 11.06, 10.75, 11.05, 11.05, 11.03, 10.73, 10.46, 10.51, 9.89, 9.34, 9.04, 8.32, 7.95, 7.33, 7.33, 7.02, 7.06, 6.64, 4.96, 4.37, 2.54, 0.0, -5.2, -4.46, -4.4, -7.6, -7.6, -4.02, -3.82, -3.22, -3.58, -3.16, -3.48, -3.07, -3.07, -2.79, -2.79, -2.79, -4.43, -5.6, -6.71, -7.6, -7.6, -8.49, -6.01, -0.0, -0.0, 8.49, -6.26, -3.4, 0.0, 4.75, 7.4, 8.3, 7.27, 5.9, 5.46, 0.0, 0.0, 1.98, 2.95, 2.8, -4.74, -3.49, -2.07, -2.41, -3.6, -2.0, 0.0, 0.0, 0.0, 0.0, 0.0, 1.32, 3.0, 3.33, 4.07, 4.07, 7.16, 7.16, 7.16, 7.57, 7.57, 7.83, 8.22, 8.49, 8.46, 8.46, 8.46, 8.85, 9.49, 9.77, 9.77, 9.77, 10.08, 9.79, 9.84, 9.84, 10.45, 10.45, 10.75, 11.05, 11.05, 11.06, 10.46, 10.18, 9.96, 9.27, 9.3, 8.94, 8.93, 7.61, 6.98, 6.98, 7.02, 6.18, 6.11, 4.96, 4.14, 2.26, 0.0, -2.4, -4.8, -6.32, -5.06, -4.0, -3.39, -3.35, -2.84, -2.68, -2.68, -3.48, -3.07, -2.53, -2.3, -3.07, -4.12, -5.6, -6.71, -7.21, -7.6, -8.49, -0.0, -0.0, -4.74, -5.37, 0.0, 3.47, 1.84, 1.6, 5.24, 8.45, 10.02, 9.65, 7.68, 6.32, 2.12, 0.0, 0.0, 0.0, -3.79, -2.98, -3.79, -2.95, -2.41, -2.84, -3.2, -2.53, -1.6, -1.41, -1.7, 0.0, 1.1, 3.0, 3.33, 3.33, 7.44, 7.44, 7.16, 7.57, 7.57, 7.83, 8.22, 8.49, 8.46, 8.46, 8.46, 8.85, 8.85, 9.84, 10.13, 10.13, 10.08, 10.08, 10.08, 10.13, 10.45, 10.45, 11.06, 11.06, 11.05, 10.74, 10.43, 9.1, 9.08, 8.59, 9.57, 9.57, 8.86, 8.23, 7.61, 7.31, 6.95, 6.53, 5.63, 5.2, 4.71, 2.82, 2.12, 0.0, -4.43, -5.06, -4.74, -5.94, -6.26, -4.43, -3.22, -3.79, -2.95, -2.41, -1.8, -2.95, -2.95, -2.68, -3.49, -4.0, -6.71, -7.6, -8.49, 8.05, -0.0, -0.0, -0.0, 0.0, 3.97, 4.74, 2.99, 1.18, 1.75, 8.48, 10.7, 10.93, 8.4, 5.59, 5.2, 5.21, 0.0, 9.39, 9.39, -0.0, -0.0, -5.37, -5.01, -2.84, -3.93, -3.6, -4.02, -3.39, -2.48, -1.3, 0.0, 1.1, 3.0, 3.0, 7.44, 7.44, 7.44, 7.57, 7.57, 7.83, 8.22, 8.49, 8.75, 8.46, 8.46, 8.85, 8.85, 9.22, 10.13, 10.13, 10.43, 10.43, 10.08, 10.13, 10.43, 10.76, 10.76, 10.75, 10.75, 10.43, 9.78, 8.73, 8.19, 9.02, 8.87, 8.54, 8.44, 8.19, 7.9, 6.95, 6.58, 6.53, 5.76, 5.63, 5.2, 4.46, 2.66, 2.12, 0.0, -3.2, -5.69, -7.6, -7.15, -3.2, -3.72, -3.47, -2.4, -2.2, -2.0, -0.98, -0.98, -2.0, -2.84, -4.0, -4.77, -7.6, 8.94, -0.0, -0.0, -1.49, -1.84, -0.0, 5.69, 6.7, 5.69, 0.0, 0.0, 4.71, 9.96, 11.46, 9.46, 7.21, 7.6, 7.06, 8.38, 10.28, 10.73, 9.83, 8.05, 8.49, -5.06, -2.98, -4.29, -3.58, -3.72, -3.58, -2.98, -2.48, 0.0, 0.0, 1.23, 1.23, 7.19, 7.19, 7.44, 7.85, 7.57, 7.83, 8.22, 8.49, 8.49, 8.75, 8.46, 8.85, 8.85, 9.22, 9.84, 10.13, 10.43, 10.13, 10.13, 10.74, 10.74, 10.76, 11.06, 10.75, 11.05, 10.11, 9.42, 8.78, 8.78, 9.17, 8.87, 7.88, 7.88, 8.44, 8.19, 7.61, 6.64, 6.28, 6.24, 5.76, 5.36, 4.68, 4.22, 4.29, 3.72, 0.0, 0.0, 7.6, 8.05, -0.0, -3.4, -2.12, -1.98, -1.41, -1.3, -1.08, -0.0, -0.0, -1.27, -1.27, -7.6, -7.6, 8.05, -0.0, -2.26, -3.2, -3.2, -3.72, 7.6, 0.0, -5.69, 0.0, 2.06, 4.26, 7.59, 11.03, 11.02, 9.96, 8.38, 8.54, 9.97, 10.28, 10.18, 9.75, 9.55, 6.8, 5.6, 4.47, -3.48, -3.16, -3.35, -2.98, -2.68, -1.6, 0.0, 0.0, 0.96, 0.96, 7.19, 7.19, 7.44, 7.85, 7.85, 7.57, 8.22, 8.49, 8.49, 8.75, 8.46, 8.46, 8.85, 8.85, 9.22, 10.13, 9.84, 10.13, 10.13, 10.43, 10.74, 10.74, 11.06, 11.06, 10.75, 10.11, 9.42, 8.74, 9.15, 9.17, 8.84, 8.15, 8.15, 7.88, 8.19, 7.58, 7.28, 6.58, 6.24, 5.94, 5.89, 4.83, 4.87, 4.47, 4.29, 3.72, 3.2, 7.6, 7.6, -0.0, -0.0, -0.0, -0.0, -0.0, -0.0, -0.0, -0.0, -0.0, -0.0, -0.0, -2.0, -5.37, -5.37, -5.69, -5.69, -5.69, -5.06, -5.06, -7.6, -5.37, -5.06, 0.0, 5.36, 6.73, 8.68, 10.79, 12.07, 10.94, 11.12, 11.62, 10.96, 10.28, 8.6, 8.06, 7.47, 5.81, 5.4, 5.09, 4.92, 4.92, -0.0, -1.8, -2.21, -3.58, 0.0, 0.0, 0.88, 0.88, 7.19, 7.19, 7.44, 7.85, 7.85, 7.85, 8.22, 8.22, 8.49, 8.86, 8.75, 8.46, 8.85, 8.85, 9.22, 9.49, 9.84, 10.13, 10.45, 10.76, 11.06, 10.74, 11.06, 11.06, 11.06, 10.11, 9.42, 9.02, 8.78, 9.17, 8.84, 8.19, 8.15, 8.15, 7.88, 7.85, 6.95, 6.95, 6.14, 6.24, 5.94, 5.3, 4.95, 5.49, 5.59, 5.72, 5.95, 6.8, 7.6, 7.6, -0.0, -0.0, -0.0, -0.0, -0.0, -0.0, -0.0, -0.0, -0.0, -0.0, -0.0, -2.73, -5.69, -6.4, -0.0, 8.94, -5.69, -3.6, -3.6, -7.6, -6.01, 0.0, 7.81, 9.16, 10.58, 10.52, 10.66, 10.78, 12.14, 12.48, 11.18, 8.43, 6.17, 4.09, 4.66, 4.77, 4.82, 3.95, 4.38, 4.92, 4.92, 4.02, 3.58, 3.58, 0.0, 0.0, 1.19, 1.19, 7.19, 7.19, 7.44, 7.85, 7.85, 7.85, 8.51, 8.22, 8.86, 8.86, 8.86, 8.46, 8.85, 8.85, 8.85, 9.49, 9.84, 10.13, 10.44, 11.06, 11.06, 11.06, 11.06, 11.06, 10.75, 10.42, 9.02, 8.58, 8.78, 8.49, 8.53, 8.78, 8.45, 8.49, 8.15, 7.85, 7.25, 7.28, 6.28, 5.86, 5.94, 5.69, 5.06, 6.79, 5.82, 5.95, 6.52, 6.8, 7.21, 7.6, 5.06, 3.0, 2.12, -0.0, -0.0, -0.0, -0.0, -0.0, -0.0, -0.0, -0.0, -0.0, -5.69, -5.06, 8.05, 8.94, -0.0, -1.95, -4.46, -5.37, -7.15, -5.06, 8.94, 10.14, 10.28, 10.12, 8.79, 8.72, 11.11, 11.18, 9.92, 8.43, 5.29, 4.02, 4.47, 4.47, 4.92, 4.92, 4.47, 4.92, 4.92, 4.02, 4.02, 4.02, 2.84, 2.0, 2.73, 1.41, 7.48, 7.48, 7.48, 7.85, 7.85, 8.23, 8.51, 8.51, 8.86, 8.86, 8.86, 8.86, 8.86, 8.58, 8.85, 9.22, 9.21, 10.13, 10.75, 11.06, 11.37, 11.37, 11.69, 11.39, 11.06, 10.06, 9.42, 8.31, 8.66, 8.49, 8.85, 8.5, 8.45, 8.45, 8.49, 7.88, 7.25, 6.95, 6.64, 6.28, 5.94, 5.64, 4.71, 6.44, 6.21, 6.8, 6.6, 6.8, 6.8, 7.15, 7.15, 4.74, 2.8, 2.8, 2.6, -0.0, -0.0, -0.0, -0.0, -0.0, -0.0, -0.0, -0.0, -0.0, 7.6, 8.94, -0.0, -2.4, -2.4, -0.0, -7.15, -8.05, 8.49, 8.94, 10.73, 10.28, 8.22, 7.02, 9.92, 10.53, 8.4, 7.31, 6.71, 4.85, 4.66, 4.66, 5.31, 5.31, 4.88, 4.92, 4.92, 4.41, 4.34, 3.35, 3.35, 3.16, 3.79, 2.73, 7.48, 7.48, 7.48, 8.15, 7.85, 8.23, 8.23, 8.51, 8.86, 8.86, 8.86, 8.86, 8.86, 8.58, 8.85, 8.85, 9.21, 9.5, 10.44, 10.75, 11.37, 11.37, 11.69, 11.07, 11.07, 10.09, 9.02, 8.05, 8.38, 8.78, 8.82, 8.53, 8.78, 8.78, 8.45, 8.15, 7.55, 7.25, 6.95, 6.64, 6.32, 5.64, 5.0, 4.36, 6.79, 6.82, 6.82, 5.84, 6.08, 6.79, 6.71, 6.0, 4.43, 2.8, 2.6, 2.4, 2.2, 1.41, 1.41, -0.0, -0.0, -0.0, -0.0, -0.0, 8.05, -0.0, -3.4, -3.4, -3.4, -0.0, -0.0, -7.6, 0.0, 7.15, 9.39, 9.7, 8.45, 7.37, 8.05, 8.32, 5.82, 4.85, 6.26, 5.59, 5.16, 5.64, 6.21, 6.21, 5.81, 5.81, 4.92, 4.87, 4.15, 2.86, 2.84, 2.95, 3.22, 3.79, 7.48, 7.48, 7.48, 7.87, 8.15, 8.23, 8.23, 8.51, 8.87, 9.16, 8.86, 8.86, 8.86, 8.86, 8.58, 8.85, 8.86, 9.21, 10.44, 10.75, 11.05, 11.05, 11.69, 11.69, 11.07, 10.09, 9.42, 8.31, 8.1, 8.1, 8.82, 8.85, 9.12, 8.78, 8.45, 8.15, 7.55, 7.58, 7.28, 6.98, 6.98, 6.01, 5.69, 4.71, 5.0, 6.64, 5.43, 4.11, 5.01, 5.58, 6.71, 5.6, 5.6, 5.6, 4.11, 2.4, 2.4, 1.41, 1.55, 1.55, 1.41, -0.0, -0.0, -0.0, -0.0, -0.0, -0.0, -0.0, -0.0, -0.0, -0.0, -5.37, 0.0, 3.8, 7.6, 7.5, 7.76, 6.66, 5.77, 4.4, 4.0, 4.82, 4.52, 6.85, 7.45, 8.01, 7.6, 7.15, 7.15, 6.71, 7.15, 6.64, 4.24, 2.86, 2.41, 2.68, 2.76, 2.76, 7.48, 7.48, 7.48, 7.87, 7.87, 8.23, 8.23, 8.51, 8.87, 8.87, 8.59, 8.86, 8.86, 8.86, 8.86, 8.58, 8.59, 8.87, 9.5, 10.75, 10.75, 11.05, 11.33, 11.63, 11.36, 10.43, 9.13, 8.78, 8.1, 8.1, 8.82, 8.85, 9.12, 9.12, 9.08, 8.49, 7.88, 7.58, 7.9, 7.28, 7.27, 6.65, 6.28, 6.01, 6.68, 6.39, 5.82, 4.54, 3.93, 4.8, 5.81, 5.81, 5.2, 5.2, 4.8, 4.8, 3.48, 3.48, 2.73, 2.73, 1.55, 1.55, -0.0, -0.0, -0.0, -0.0, -0.0, -0.0, -0.0, -0.0, -0.0, -5.37, 0.0, 0.0, 3.8, 6.13, 6.21, 8.49, 8.05, 7.06, 5.75, 6.21, 8.14, 10.02, 9.26, 8.49, 5.81, 5.78, 6.22, 6.66, 7.1, 7.37, 5.16, 3.49, 2.3, 1.83, 1.83, 1.83, 7.48, 7.48, 7.48, 7.87, 7.87, 8.53, 8.23, 8.23, 8.87, 8.87, 8.87, 8.59, 8.86, 8.86, 8.86, 8.58, 8.87, 8.87, 9.21, 10.45, 10.75, 11.03, 11.03, 11.33, 10.72, 10.42, 9.48, 8.83, 8.49, 8.2, 8.52, 8.53, 9.12, 9.12, 9.08, 8.49, 8.21, 7.88, 7.58, 7.56, 7.51, 7.15, 6.87, 6.51, 7.17, 7.28, 6.94, 6.16, 5.94, 5.73, 5.26, 5.36, 5.36, 5.36, 5.36, 4.66, 4.09, 4.09, 4.46, 3.79, 2.98, 2.73, 1.55, -0.0, -0.0, -0.0, -0.0, -0.0, 3.2, -0.0, -5.37, -7.2, -1.95, 0.0, 2.54, 4.46, 6.99, 8.89, 10.68, 10.4, 10.01, 11.53, 12.7, 12.04, 10.69, 8.49, 5.32, 5.2, 5.64, 5.86, 5.86, 5.86, 5.44, 2.68, 1.66, 0.0, 0.0, 0.0, 7.51, 7.51, 7.48, 7.87, 7.87, 8.24, 8.53, 8.23, 8.59, 8.87, 8.87, 8.87, 8.86, 8.86, 8.86, 8.58, 8.87, 8.87, 9.5, 10.13, 10.75, 10.75, 11.03, 11.03, 11.03, 10.72, 9.5, 9.17, 8.85, 8.54, 8.85, 8.53, 9.12, 9.12, 9.12, 8.82, 8.21, 7.88, 8.19, 7.58, 7.56, 7.51, 7.44, 7.07, 6.95, 7.46, 7.98, 7.71, 6.79, 6.94, 6.64, 6.17, 5.81, 5.36, 5.36, 5.2, 5.2, 4.8, 4.8, 4.46, 4.84, 3.79, 2.98, 1.55, -0.0, -0.0, 6.01, 3.4, -0.0, -2.26, -6.01, -7.6, -2.54, 0.0, 3.15, 5.1, 7.67, 9.39, 9.92, 10.28, 11.2, 12.43, 13.83, 12.96, 11.12, 9.83, 8.6, 5.75, 5.05, 4.66, 8.22, 4.66, 4.46, 2.2, -1.08, -2.95, -2.95, -2.95, 7.51, 7.51, 7.51, 7.87, 7.87, 8.24, 8.53, 8.23, 8.59, 8.87, 8.87, 8.87, 8.86, 8.86, 8.86, 8.86, 8.87, 8.87, 9.16, 9.8, 10.43, 10.43, 10.75, 11.03, 10.72, 10.43, 9.8, 9.48, 8.87, 8.85, 8.85, 9.15, 9.12, 9.12, 9.12, 8.82, 8.49, 7.88, 8.19, 7.85, 7.8, 7.21, 7.15, 7.07, 7.34, 7.6, 7.84, 7.98, 7.71, 7.21, 6.98, 6.51, 6.64, 6.17, 5.36, 5.36, 5.26, 5.64, 5.2, 5.2, 5.2, 4.84, 4.84, 2.98, 1.7, 6.01, 6.01, 5.37, -0.0, -5.37, -7.06, -7.6, -7.81, -6.7, -6.01, -8.94, 8.94, 8.91, 8.54, 7.27, 7.52, 11.64, 13.92, 12.63, 11.56, 10.62, 9.74, 7.76, 5.84, 6.98, 4.65, 3.14, 3.16, 0.0, -3.93, -4.57, -4.57, -4.57, 7.51, 7.51, 7.51, 8.17, 7.87, 7.87, 8.24, 8.53, 8.59, 8.59, 9.21, 9.21, 8.59, 8.86, 8.86, 8.86, 8.59, 8.59, 9.16, 9.5, 10.13, 10.43, 10.43, 11.33, 11.05, 10.43, 9.8, 9.8, 9.17, 9.17, 8.85, 9.15, 9.42, 9.37, 9.37, 9.08, 8.82, 8.21, 8.19, 7.85, 7.8, 7.44, 7.15, 7.44, 7.34, 7.6, 7.6, 7.73, 7.89, 7.47, 7.21, 6.7, 6.94, 6.45, 5.81, 5.81, 5.81, 5.7, 6.14, 6.07, 5.6, 5.6, 4.84, 3.22, 2.98, 3.8, 5.69, -0.0, -0.0, -7.6, -7.2, -7.89, -8.05, -8.49, -8.94, -8.48, -0.0, 5.63, 6.01, 4.66, 5.9, 10.04, 13.02, 12.27, 10.94, 10.05, 8.94, 6.8, 4.43, 3.58, 2.86, 3.22, 2.48, 0.0, -1.19, -2.73, -2.73, -2.73, 7.51, 7.51, 7.51, 7.89, 8.17, 7.87, 8.24, 8.53, 8.87, 8.59, 9.21, 9.21, 9.21, 8.86, 8.86, 8.59, 8.23, 8.59, 8.87, 9.5, 10.13, 10.43, 10.72, 11.33, 11.05, 10.43, 10.12, 9.8, 9.17, 9.48, 9.17, 9.42, 9.42, 9.37, 9.37, 9.08, 9.08, 8.49, 8.53, 8.19, 8.15, 7.8, 7.51, 7.44, 7.44, 7.34, 7.46, 7.73, 7.6, 7.47, 7.35, 7.21, 6.7, 6.94, 6.2, 5.81, 5.81, 5.81, 6.14, 6.14, 6.07, 6.07, 5.21, 4.11, 1.7, -0.0, 3.6, 3.6, 5.69, 8.05, -0.0, -7.07, -8.33, -8.77, -8.0, -6.32, -2.83, 1.75, 3.52, 3.52, 5.46, 7.68, 9.96, 10.51, 10.38, 9.1, 6.99, 5.81, 3.48, 4.66, 3.82, 3.82, 3.6, 1.41, 0.0, 0.0, 0.0, 0.0, 7.51, 7.51, 7.51, 7.89, 7.89, 7.87, 8.24, 8.53, 8.87, 8.59, 9.21, 9.21, 9.21, 9.21, 8.59, 8.59, 8.23, 8.59, 8.87, 9.5, 9.82, 10.43, 10.43, 10.72, 10.72, 10.43, 10.42, 9.8, 9.8, 9.48, 9.46, 9.76, 9.42, 9.37, 9.37, 9.3, 9.08, 8.79, 8.79, 8.44, 8.73, 8.15, 8.09, 7.51, 7.44, 7.72, 7.17, 7.46, 7.6, 7.2, 7.35, 6.94, 7.12, 6.7, 6.64, 6.2, 5.81, 6.26, 6.26, 6.26, 6.58, 6.51, 5.94, 4.11, 1.7, -0.0, 3.4, 5.69, 5.69, 5.69, 8.94, -6.32, -7.07, -8.24, -7.07, -6.01, -2.06, -0.0, 1.4, 3.35, 4.96, 5.2, 6.04, 7.78, 9.76, 9.8, 5.73, 3.79, 4.02, 4.47, 4.02, 3.6, 4.02, 0.0, 0.0, -1.55, -1.55, -1.55, 7.51, 7.24, 7.51, 7.89, 7.89, 8.17, 8.24, 8.24, 8.87, 8.87, 9.21, 9.21, 9.5, 9.21, 8.87, 8.59, 8.53, 8.87, 8.87, 9.5, 9.5, 10.13, 10.43, 10.72, 10.72, 10.72, 10.42, 10.12, 10.11, 9.78, 9.78, 9.76, 9.76, 9.71, 9.66, 9.3, 9.01, 9.01, 8.79, 8.73, 8.73, 8.37, 8.45, 8.09, 7.81, 7.44, 7.72, 7.46, 7.06, 7.2, 7.2, 6.94, 6.94, 6.94, 6.94, 6.64, 5.81, 6.26, 6.26, 6.26, 6.71, 6.51, 6.07, 5.2, 2.4, -0.0, -0.0, 3.4, -0.0, -0.0, 8.05, 8.49, -6.32, -8.67, -8.06, -7.07, -2.54, -1.95, -0.0, 1.4, 3.8, 4.21, 4.71, 6.45, 10.17, 8.89, 4.92, 5.26, 2.2, 0.0, 3.82, 3.6, 3.58, -2.84, -2.48, -2.68, -2.68, -2.68, 7.24, 7.24, 7.24, 7.89, 7.89, 7.89, 8.54, 8.24, 8.58, 8.87, 9.21, 9.21, 9.5, 9.5, 8.59, 8.87, 8.87, 9.17, 9.16, 9.5, 9.5, 9.82, 10.43, 10.43, 10.72, 10.43, 10.42, 10.12, 10.11, 9.78, 9.78, 9.76, 9.76, 9.71, 10.01, 9.66, 9.58, 9.01, 8.44, 8.73, 8.73, 8.65, 8.65, 8.09, 8.0, 7.61, 7.72, 7.34, 7.46, 7.06, 7.2, 7.47, 6.94, 7.12, 6.94, 7.08, 6.2, 6.26, 6.26, 6.26, 6.71, 6.71, 6.71, 5.6, -0.0, -0.0, -0.0, -0.0, -0.0, 7.15, 7.15, 7.15, -0.0, -4.0, -9.11, -8.48, -6.01, -2.54, -0.0, -0.0, 3.15, 3.6, 5.03, 6.99, 12.48, 10.28, 5.81, 4.87, 3.93, 2.98, 2.73, 3.48, 4.47, -3.82, -3.16, -3.48, -3.48, -3.48, 7.54, 7.54, 7.24, 7.61, 7.89, 7.89, 8.24, 8.54, 8.58, 8.87, 9.21, 9.21, 9.5, 9.21, 8.87, 8.87, 9.17, 8.87, 9.5, 9.5, 9.5, 9.82, 10.43, 10.43, 10.43, 10.12, 10.42, 9.8, 10.11, 9.78, 10.09, 9.76, 10.06, 9.71, 10.01, 9.66, 9.58, 9.37, 9.3, 8.73, 8.73, 8.65, 8.65, 8.54, 8.38, 8.0, 7.87, 7.34, 7.6, 7.06, 7.33, 7.2, 7.47, 7.21, 7.37, 6.94, 6.64, 6.64, 6.71, 6.71, 6.71, 6.71, 6.71, 6.71, 5.81, -0.0, -0.0, 6.71, 6.71, 7.15, -7.15, -7.15, 6.71, 5.06, -8.0, -7.6, -6.01, -0.0, -0.0, -0.0, -0.0, 3.15, 5.69, 10.58, 12.48, 11.18, 7.1, 3.58, 2.86, 2.15, 1.8, 2.48, -3.48, -4.34, -3.58, -4.22, -4.22, -4.22, 7.54, 7.54, 7.54, 7.9, 7.89, 7.89, 8.24, 8.54, 8.58, 8.87, 9.19, 9.5, 9.19, 8.87, 8.58, 8.87, 9.17, 8.87, 9.21, 9.5, 9.5, 9.82, 10.13, 10.13, 10.43, 10.12, 10.12, 9.8, 10.39, 10.06, 10.35, 10.01, 10.3, 10.3, 10.23, 9.95, 9.95, 9.86, 9.3, 9.3, 9.2, 8.65, 8.65, 8.54, 8.54, 8.0, 7.87, 7.87, 7.34, 7.6, 7.6, 7.33, 7.47, 7.71, 7.21, 7.37, 6.94, 6.64, 6.64, 6.61, 6.71, 6.71, 6.71, 6.71, 6.26, 5.36, -4.92, 4.92, 7.15, 7.15, 7.15, -5.06, 0.0, 7.15, 7.15, -5.06, -5.69, -0.0, -0.0, -0.0, -0.0, 2.69, 6.99, 9.85, 11.21, 10.41, 6.08, 3.58, 0.76, 0.7, 0.98, 0.0, -3.16, -4.0, -3.93, -4.22, -4.22, -4.22, 7.54, 7.54, 7.54, 7.9, 7.9, 7.89, 8.24, 8.24, 8.58, 8.87, 8.58, 8.88, 9.17, 8.87, 8.87, 8.87, 9.17, 8.87, 9.21, 9.21, 9.5, 9.82, 9.82, 9.82, 10.12, 9.8, 9.5, 9.8, 9.8, 10.06, 9.72, 10.01, 10.01, 10.3, 10.23, 10.23, 10.13, 9.86, 9.86, 9.74, 9.2, 9.2, 9.07, 8.54, 8.54, 8.4, 8.27, 7.87, 7.87, 7.71, 7.6, 7.84, 7.56, 7.47, 7.71, 7.21, 7.37, 6.94, 7.08, 7.08, 6.61, 6.71, 6.71, 6.71, 6.71, 6.26, 5.81, 5.36, 7.15, 7.6, 7.6, 8.05, -5.69, -6.01, -8.49, -8.05, -7.6, 8.05, 8.49, -0.0, -0.0, -0.0, 6.0, 6.99, 9.45, 7.51, -0.0, -2.21, -0.99, 0.0, -1.08, -1.27, -1.8, -2.48, -3.48, -3.93, -3.93, -3.93, 7.26, 7.26, 7.54, 7.9, 7.9, 7.61, 7.95, 8.24, 8.24, 8.56, 8.56, 8.87, 9.17, 9.17, 8.87, 8.87, 9.17, 8.87, 9.21, 9.21, 9.21, 9.82, 9.82, 10.12, 10.12, 9.8, 9.5, 9.8, 9.48, 10.06, 9.72, 10.01, 10.01, 9.94, 9.94, 10.23, 10.13, 10.13, 10.02, 10.27, 9.74, 9.35, 9.47, 9.07, 9.07, 8.8, 8.4, 8.4, 7.87, 8.12, 7.71, 7.6, 7.43, 7.56, 7.47, 7.28, 7.21, 6.79, 6.94, 6.88, 7.08, 6.61, 6.58, 6.94, 6.79, 6.26, 5.81, 5.81, 5.81, 7.6, 8.05, -8.05, -8.05, -8.49, -8.49, 8.49, -8.05, -5.37, 0.0, 8.05, 7.6, 7.6, 5.64, 5.2, 7.4, 7.81, -1.13, -1.88, -3.13, -2.53, -2.84, -4.29, -4.74, 0.0, 0.0, -2.48, -2.48, -2.48, 7.26, 7.26, 7.26, 7.9, 7.61, 7.9, 8.24, 7.95, 8.24, 8.53, 8.85, 8.56, 9.17, 9.17, 8.87, 9.17, 9.17, 9.5, 9.5, 9.5, 9.5, 9.8, 10.12, 10.12, 10.12, 9.5, 9.5, 9.19, 9.48, 9.48, 9.72, 9.72, 10.01, 10.01, 9.94, 9.94, 9.86, 9.76, 9.76, 10.02, 9.88, 9.88, 9.6, 9.2, 9.07, 9.32, 8.91, 8.8, 8.4, 8.22, 8.12, 7.71, 7.84, 7.43, 7.56, 7.56, 7.06, 7.21, 6.79, 6.94, 6.88, 7.08, 7.06, 7.01, 6.79, 4.74, 0.0, 0.0, -5.81, 7.6, -8.05, -8.05, -7.6, -7.6, -8.05, 8.05, 7.6, -5.69, -3.6, -3.4, 0.0, 3.4, 7.21, 5.81, 7.08, 8.49, 4.47, -1.74, -2.86, -3.51, -4.0, -5.58, -2.8, 0.0, 0.0, 0.0, 0.0, 0.0, 7.26, 7.26, 7.26, 7.61, 7.61, 7.61, 7.61, 7.93, 8.24, 8.85, 8.85, 9.17, 9.17, 9.17, 9.17, 9.48, 9.19, 9.19, 9.19, 9.5, 9.5, 9.5, 9.8, 10.12, 9.8, 9.5, 9.5, 9.19, 9.48, 9.17, 9.46, 9.46, 10.01, 10.01, 9.94, 9.94, 9.59, 9.86, 9.76, 9.76, 9.63, 9.63, 9.35, 9.35, 9.2, 9.2, 8.68, 8.91, 8.51, 8.4, 8.22, 7.71, 7.71, 7.84, 7.43, 7.56, 7.14, 7.06, 6.79, 6.79, 6.7, 6.88, 6.79, 7.06, 6.8, 5.06, 2.8, 0.0, -4.43, 0.0, -5.69, -5.37, -7.15, -7.15, -5.06, -5.37, 0.0, 0.0, 0.0, -2.4, 0.0, 0.0, 4.71, 6.23, 7.15, 9.39, 7.5, 4.92, -2.53, -3.58, -3.83, -4.19, -1.55, 0.0, 0.96, 0.0, 0.0, 0.0, 6.98, 6.98, 6.98, 7.26, 7.61, 7.61, 7.91, 8.24, 8.24, 8.85, 8.85, 9.17, 9.17, 9.17, 9.17, 9.48, 9.19, 9.19, 9.19, 9.19, 9.19, 9.5, 9.8, 9.8, 9.8, 9.5, 9.19, 9.48, 9.48, 9.17, 9.46, 9.46, 9.42, 9.66, 9.66, 9.94, 9.59, 9.86, 9.86, 9.5, 9.76, 9.21, 9.48, 9.1, 9.35, 8.96, 9.07, 8.68, 8.91, 8.51, 8.4, 8.22, 7.71, 7.71, 7.43, 7.43, 7.33, 7.06, 7.06, 6.94, 7.21, 7.12, 7.31, 7.21, 6.8, 5.06, 2.12, 0.0, 0.0, 0.0, 0.0, -8.49, -7.6, -7.15, -5.06, -3.4, -3.6, -3.6, -3.4, -2.54, -2.54, 0.0, 3.8, 6.52, 7.31, 9.39, 9.29, 6.51, 6.26, -4.92, -4.4, -2.95, -1.84, 0.0, 0.0, 1.75, 1.75, 1.75, 6.7, 6.7, 6.7, 6.98, 7.27, 7.91, 7.91, 8.53, 8.24, 8.54, 8.85, 8.85, 9.13, 9.17, 9.17, 9.19, 9.19, 9.19, 9.19, 9.19, 9.19, 9.19, 9.8, 9.8, 9.8, 9.19, 9.19, 9.48, 9.17, 9.17, 9.46, 9.46, 9.13, 9.66, 9.66, 9.94, 9.59, 9.37, 9.3, 9.3, 9.58, 9.21, 9.21, 9.1, 9.1, 9.35, 9.2, 9.07, 9.07, 8.68, 8.51, 8.0, 8.12, 7.71, 7.6, 7.43, 7.33, 7.33, 7.2, 7.06, 6.94, 6.8, 6.99, 7.2, 6.9, 5.37, 3.97, 0.0, 0.0, 0.0, 0.0, 8.94, 8.05, 8.49, 7.15, -6.8, -6.32, -7.2, -6.8, -2.4, -1.95, 0.0, 2.99, 4.75, 6.8, 8.85, 9.39, 7.5, 6.51, 6.71, 0.0, -3.0, -3.6, -1.47, 0.0, 1.67, 1.67, 1.67, 6.34, 6.34, 6.7, 7.27, 7.27, 7.91, 7.91, 8.53, 8.24, 8.54, 8.85, 8.85, 8.85, 8.85, 9.17, 9.48, 9.19, 9.48, 9.48, 9.48, 9.48, 9.48, 10.09, 9.8, 9.8, 9.48, 9.48, 9.48, 9.17, 9.17, 9.17, 9.13, 9.13, 9.42, 9.66, 9.66, 9.37, 9.37, 9.3, 9.3, 8.94, 9.21, 9.21, 8.84, 9.3, 8.93, 9.2, 9.2, 8.82, 8.54, 8.4, 8.4, 8.0, 7.87, 7.71, 7.6, 7.06, 7.33, 7.2, 7.2, 7.35, 7.35, 7.2, 7.4, 7.2, 5.37, 3.2, 1.73, 0.0, 0.0, 0.0, 0.0, 6.71, 8.94, 7.15, -6.4, -7.21, -7.2, -6.8, -2.4, 0.0, 0.0, 2.4, 4.22, 5.95, 8.17, 8.85, 8.49, 7.5, 5.95, 5.06, 0.0, -2.69, 0.0, 0.0, 2.06, 2.06, 2.06, 6.34, 6.34, 6.7, 7.27, 7.27, 7.91, 7.91, 8.53, 8.24, 8.54, 8.85, 8.85, 8.85, 8.85, 9.17, 9.48, 9.19, 9.48, 9.48, 9.48, 9.48, 9.48, 10.09, 9.8, 9.8, 9.48, 9.48, 9.48, 9.17, 9.17, 9.17, 9.13, 9.13, 9.42, 9.66, 9.66, 9.37, 9.37, 9.3, 9.3, 8.94, 9.21, 9.21, 8.84, 9.3, 8.93, 9.2, 9.2, 8.82, 8.54, 8.4, 8.4, 8.0, 7.87, 7.71, 7.6, 7.06, 7.33, 7.2, 7.2, 7.35, 7.35, 7.2, 7.4, 7.2, 5.37, 3.2, 1.73, 0.0, 0.0, 0.0, 0.0, 6.71, 8.94, 7.15, -6.4, -7.21, -7.2, -6.8, -2.4, 0.0, 1.25, 2.4, 4.22, 5.06, 6.8, 8.06, 8.38, 8.49, 7.45, 7.81, 8.06, 7.6, 6.01, 4.71, 6.01, 6.01, 6.01]}, {"header": {"dx": 0.06612293990616946, "dy": 0.0552356325346848, "nx": 98, "ny": 59, "la1": 35.046912555036876, "la2": 31.78801023549047, "lo1": -121.43107172385933, "lo2": -114.95102361305473, "refTime": "2026040811", "parameterCategory": 1, "parameterNumber": 3}, "data": [-11.63, -11.82, -11.82, -12.21, -12.33, -11.88, -12.03, -12.18, -11.9, -12.45, -11.88, -10.8, -11.84, -10.52, -8.43, -7.21, -6.3, -5.21, -4.37, -2.26, -1.18, -0.0, 2.12, 3.45, 4.19, 3.76, 2.8, -0.0, -0.0, -0.0, 5.81, 3.79, 3.79, 2.98, 1.3, 0.0, 0.0, -1.32, -2.12, 0.0, 5.06, 2.54, 0.0, -3.98, -5.4, -6.1, -7.82, -9.17, -9.28, -8.99, -6.7, 10.0, 10.18, 8.82, 8.55, 7.9, 7.27, 5.98, 5.69, 4.8, 3.61, 3.82, 0.0, 6.64, 4.46, 4.29, 3.2, 2.67, 2.44, 3.16, 2.44, 1.76, 1.11, 0.0, 0.0, 2.06, 2.57, 0.0, -8.22, 1.93, 2.32, 1.19, -0.0, -2.73, -4.66, -2.53, 0.0, 0.0, 0.0, -2.26, -3.91, -5.49, -6.24, -6.24, -5.49, -5.59, -4.83, -4.03, -11.63, -11.63, -11.82, -11.82, -12.33, -12.13, -12.27, -12.03, -12.56, -12.27, -11.31, -11.5, -9.3, -9.6, -10.73, -8.18, -6.32, -6.42, -5.86, -3.77, -3.35, -1.14, -0.0, 2.82, 3.91, 4.74, 4.02, 3.0, -0.0, -0.0, -0.0, 6.26, 6.26, 5.64, 5.01, 3.22, 1.01, 0.0, -1.49, -2.4, -2.54, -2.39, -5.75, -7.54, -9.4, -10.89, -11.73, -11.53, -10.89, -8.51, 5.2, 10.41, 8.23, 8.18, 8.54, 8.37, 7.81, 6.69, 5.69, 5.21, 4.18, 3.45, 3.49, 6.64, 5.69, 4.75, 3.77, 2.67, 2.69, 3.11, 3.29, 2.6, 1.16, 0.0, 0.0, 1.2, 2.28, 0.0, -8.22, 1.93, 2.32, 1.19, -0.0, -2.73, -4.66, -2.53, 0.0, 0.0, 0.0, -2.26, -3.91, -5.49, -6.24, -6.24, -5.49, -5.59, -4.83, -4.03, -11.82, -11.82, -11.82, -11.82, -12.21, -12.72, -12.51, -12.27, -12.79, -12.13, -10.81, -9.03, -9.97, -7.9, -6.95, -6.95, -9.54, -8.18, -7.27, -6.14, -4.68, -4.66, -3.7, -1.32, -0.0, 3.45, 4.74, 4.02, 1.73, -1.84, -3.4, -0.0, 2.26, 6.4, 5.6, 3.4, 1.96, 1.14, -1.2, -4.0, -6.95, -8.69, -10.58, -12.84, -14.42, -15.05, -13.97, -12.09, -10.12, 9.6, 10.28, 8.8, 8.43, 8.8, 8.15, 8.0, 6.95, 6.69, 5.45, 4.18, 4.18, 4.4, 5.21, 6.32, 5.69, 4.58, 4.03, 3.91, 4.34, 4.71, 4.5, 4.01, 0.97, 0.0, -2.83, -1.4, 0.0, 1.0, -10.8, -0.0, -0.0, -0.0, -3.79, -3.79, -2.3, -1.8, -0.0, 0.0, -2.32, -3.6, -5.18, -6.79, -7.27, -6.95, -6.64, -5.24, -4.16, -3.33, -11.82, -11.82, -12.21, -11.82, -12.21, -12.59, -13.1, -12.89, -12.65, -12.03, -10.66, -9.6, -10.68, -9.2, -8.82, -8.23, -8.23, -10.73, -8.24, -5.98, -4.96, -3.91, -4.66, -4.5, -2.31, -0.0, 2.66, 3.97, 3.2, -1.84, -5.69, -5.59, -3.8, -2.06, 0.0, 0.0, 0.0, -1.62, -3.82, -7.26, -10.22, -13.14, -14.5, -13.77, -12.49, -10.81, -8.72, -4.8, 4.4, 8.05, 6.98, 7.51, 8.05, 8.63, 8.15, 7.64, 6.95, 5.72, 4.99, 4.18, 3.11, 4.4, 6.01, 6.87, 6.11, 5.37, 4.83, 5.59, 6.23, 6.81, 6.33, 4.65, 2.71, 0.0, -6.32, -6.64, -3.99, -2.31, -4.98, -3.98, -1.41, -2.48, -2.53, -1.94, -1.35, -0.96, -3.79, -3.79, -4.75, -6.31, -6.87, -6.31, -6.95, -6.64, -5.15, -3.0, -1.72, -1.6, -11.82, -11.82, -12.21, -12.21, -12.21, -12.59, -12.97, -12.76, -12.52, -11.9, -10.87, -9.05, -10.27, -9.75, -9.75, -10.32, -9.6, -9.58, -10.6, -7.27, -5.32, -4.0, -2.4, -3.35, -2.99, -2.98, -1.67, -2.69, -6.01, -6.8, -7.89, -7.64, -8.42, -9.2, -10.28, -9.6, -8.93, -9.16, -10.12, -12.92, -14.24, -12.57, -10.25, -6.94, -3.34, -2.19, 0.0, 2.28, 4.21, 4.71, 5.59, 6.32, 7.67, 8.0, 7.81, 6.64, 5.46, 5.72, 4.78, 3.65, 3.11, 4.88, 7.21, 6.45, 6.39, 5.94, 4.83, 5.37, 6.68, 6.79, 5.99, 4.71, 4.55, 3.68, -2.99, -7.74, -7.51, -4.71, -1.98, -7.9, -1.94, -2.2, -1.94, -2.2, -2.11, -3.07, -5.36, -5.06, -6.95, -7.73, -6.2, -5.38, -5.49, -4.19, -2.8, 0.0, -0.89, -1.45, -11.82, -11.82, -12.21, -12.21, -12.21, -12.59, -12.97, -12.97, -12.76, -12.13, -10.35, -8.93, -9.2, -8.82, -9.6, -9.89, -10.32, -10.0, -11.51, -9.82, -7.93, -6.79, -5.69, -4.4, -4.44, -5.2, -5.72, -7.67, -8.77, -9.39, -8.33, -9.39, -9.03, -10.93, -12.52, -11.99, -11.8, -10.9, -12.14, -14.0, -13.99, -11.64, -6.98, 0.0, 0.86, 0.74, 0.76, 0.0, 0.93, 1.33, 2.83, 4.6, 6.98, 7.67, 7.33, 6.01, 6.01, 4.66, 4.78, 3.36, 2.83, 5.21, 6.87, 5.69, 5.3, 5.49, 4.83, 3.9, 4.58, 4.12, 3.16, 3.19, 4.93, 4.93, 3.34, -3.91, -6.16, -5.21, -1.84, -6.64, -3.43, -4.07, -3.64, -3.64, -4.43, -7.37, -8.45, -8.8, -8.93, -8.27, -6.64, -6.42, -5.03, -0.0, -0.0, -2.32, -2.2, -2.31, -11.82, -11.82, -11.82, -12.21, -12.59, -12.97, -12.85, -12.65, -12.97, -11.37, -9.86, -8.12, -8.82, -8.23, -8.22, -8.82, -10.6, -10.68, -10.8, -12.07, -9.77, -10.92, -11.6, -11.34, -10.99, -10.73, -12.21, -12.51, -10.28, -8.67, -9.83, -8.0, -6.64, -9.29, -10.7, -12.52, -12.86, -12.21, -10.59, -11.16, -12.89, -12.07, -12.04, -8.01, -6.08, -3.19, -2.28, -0.79, 0.0, 0.0, 0.0, 3.32, 6.64, 8.05, 7.33, 5.86, 5.21, 4.66, 3.45, 2.59, 3.99, 5.21, 5.59, 4.22, 4.19, 4.16, 4.03, 2.99, 1.18, 0.79, 0.0, 0.0, 1.54, 1.7, 1.71, 0.0, -3.22, -4.4, 0.0, -4.11, -5.05, -6.94, -7.2, -7.2, -8.63, -10.28, -11.4, -10.95, -9.6, -8.3, -8.23, -8.93, -0.0, -0.0, -6.71, -3.91, -3.6, -3.8, -11.44, -11.82, -12.21, -12.77, -13.15, -12.97, -12.85, -12.85, -12.59, -11.17, -9.47, -8.76, -9.55, -7.9, -4.48, -3.98, -7.26, -8.85, -8.85, -7.28, -6.44, -12.52, -10.4, -13.81, -14.47, -13.15, -13.67, -13.2, -10.73, -9.09, -9.2, -11.62, -11.84, -10.4, -10.6, -12.42, -12.5, -10.45, -7.64, -9.67, -11.03, -11.11, -13.23, -14.1, -12.17, -8.75, -4.6, -2.59, -0.89, -1.28, -1.47, 1.84, 8.05, 7.81, 7.21, 6.01, 5.46, 4.2, 3.81, 2.83, 2.97, 2.97, 2.99, 4.74, 6.8, 5.69, 2.06, 0.0, 0.0, -1.01, -0.8, -0.85, -1.54, -2.34, -2.34, -0.76, 1.16, 2.6, 1.6, 0.0, -8.24, -7.94, -8.71, -9.29, -10.73, -11.99, -11.66, -10.6, -9.66, -8.58, -9.74, -1.55, -0.0, -1.23, -6.51, -4.43, -5.13, -4.37, -11.99, -12.38, -12.38, -12.77, -13.15, -12.85, -13.03, -13.03, -12.38, -10.79, -9.6, -9.75, -12.83, -12.3, -10.87, -7.82, -7.82, -7.54, -7.54, -5.6, -2.45, -2.54, -6.67, -12.52, -10.88, -10.4, -8.43, -9.08, -9.8, -9.67, -11.56, -13.36, -12.96, -11.21, -10.6, -11.21, -10.66, -10.68, -9.54, -9.63, -10.18, -11.21, -13.15, -12.51, -11.84, -10.6, -10.18, -7.56, -5.21, -4.4, -3.11, 4.0, 8.05, 7.81, 6.64, 6.11, 4.98, 3.81, 3.49, 2.7, 1.84, 1.4, 4.43, 6.32, 8.94, 6.32, 2.17, 0.0, 0.0, -1.49, -1.14, -1.6, -2.25, -3.47, -2.95, -0.99, 1.07, 1.75, 0.79, 0.75, -1.29, -7.6, -7.15, -8.49, -9.36, -10.18, -9.83, -8.79, -7.6, -2.95, -0.0, -0.0, -1.84, -5.01, -5.94, -4.43, -5.49, -4.46, -12.38, -12.53, -12.93, -12.65, -13.03, -13.03, -13.03, -13.03, -12.38, -10.55, -10.52, -11.06, -11.38, -13.59, -13.5, -12.6, -12.79, -12.65, -12.79, -11.92, -11.62, -10.73, -9.48, -7.78, -10.84, -6.64, -6.01, -7.59, -10.02, -11.76, -12.96, -15.65, -15.2, -12.96, -11.18, -8.82, -5.93, -6.6, -8.06, -9.33, -10.52, -11.33, -6.57, -4.74, -6.51, -8.94, -10.69, -9.97, -8.79, -6.01, -2.54, 7.07, 7.67, 6.32, 6.11, 5.63, 4.2, 3.21, 2.47, 1.68, 0.77, 0.0, 8.05, 7.67, 8.94, 5.69, 3.17, 2.44, 1.32, -1.58, -2.33, -2.21, -2.82, -2.82, -1.45, -0.85, -2.17, -1.84, -1.43, -0.72, 0.0, -2.32, -8.41, -6.64, -6.02, -5.94, -6.0, -4.54, -2.4, 3.16, 0.98, -1.05, -4.19, -6.17, -6.02, -5.09, -5.64, -5.0, -12.38, -12.53, -12.65, -12.65, -12.81, -13.2, -13.2, -12.65, -11.99, -10.94, -11.06, -11.46, -11.56, -12.66, -13.88, -13.99, -15.47, -14.35, -14.26, -14.49, -16.17, -16.48, -15.27, -11.99, -11.62, -6.32, -8.37, -8.93, -10.99, -13.8, -13.36, -12.71, -11.62, -11.28, -11.36, -11.18, -9.77, -7.56, -6.13, -3.4, -7.6, -7.15, 7.15, 8.05, 8.05, -7.15, -7.45, -7.5, -7.47, -4.46, -0.0, 8.49, 5.1, 5.59, 5.2, 4.34, 3.21, 2.28, 0.78, 0.0, 0.0, 0.0, 8.94, 8.05, 8.49, 5.69, 4.26, 3.27, 2.09, 0.0, -2.97, -3.46, -3.68, -3.07, -2.41, -1.63, -3.49, -5.46, -5.21, -4.68, -2.76, -1.55, -2.82, -8.43, -3.6, -1.14, -1.1, -0.95, 0.0, 0.0, 0.0, -4.24, -4.57, -5.75, -6.02, -5.46, -5.72, -5.43, -12.38, -12.53, -12.27, -12.65, -12.81, -12.81, -13.2, -12.65, -11.99, -11.47, -11.33, -11.72, -12.21, -12.01, -11.28, -11.2, -11.62, -13.42, -14.77, -15.1, -14.08, -13.01, -11.4, -11.28, -6.79, -6.36, -5.21, -2.53, -3.48, -6.61, -8.49, 0.0, 6.07, -0.0, -10.18, -10.28, -10.22, -8.05, -0.0, 7.6, 6.7, 6.7, 7.6, 7.21, 7.15, -0.0, -0.0, -0.0, -0.0, -0.0, -4.22, -8.05, 0.0, 1.58, 2.33, 2.69, 2.35, 2.28, 0.0, -0.93, -2.57, -1.75, 7.51, 6.32, 8.94, 5.69, 4.56, 4.6, 2.69, 0.0, -2.35, -3.69, -3.61, -2.95, -2.95, -2.71, -3.67, -5.21, -6.42, -7.09, -6.2, -2.39, -0.89, -4.2, -2.06, 0.0, -1.26, -1.22, 0.0, 0.0, -0.7, -1.49, -3.9, -5.36, -6.16, -5.09, -5.46, -6.21, -12.38, -12.53, -12.27, -12.65, -12.81, -12.81, -12.81, -12.27, -12.53, -11.87, -11.87, -11.99, -12.38, -12.27, -11.49, -11.17, -10.65, -10.15, -10.52, -11.33, -10.53, -8.4, -7.2, -5.2, -4.65, -3.48, 3.16, 3.22, 2.79, -0.0, -0.0, 3.76, 5.37, 5.64, 4.11, 0.0, 0.0, 3.4, 3.4, 3.6, -0.0, -3.97, -6.26, -4.11, -4.8, -3.93, -4.11, -3.45, -3.6, -6.44, -6.4, -7.31, -8.49, -8.06, -5.63, -3.32, 0.0, 1.14, 1.0, 0.0, -4.0, -8.94, 3.32, 4.0, 8.49, 5.37, 4.19, 4.58, 4.22, 3.4, 0.0, -1.07, -2.09, -1.95, -2.7, -3.53, -4.47, -5.52, -6.31, -6.51, -5.64, -4.83, -4.6, -4.3, -1.32, -1.2, -2.6, -3.61, -2.06, 0.0, 0.0, -0.7, -0.79, -4.29, -5.58, -5.15, -5.15, -6.0, -12.38, -12.27, -12.27, -12.27, -12.81, -12.81, -12.81, -12.53, -12.53, -12.14, -12.14, -12.38, -12.47, -12.85, -12.35, -11.76, -10.18, -10.43, -10.24, -10.41, -9.58, -9.3, -9.17, -8.15, -6.7, -5.81, 1.19, 1.76, 2.82, 2.32, 1.07, 1.7, 2.26, 5.6, 6.0, 6.0, 6.71, 0.0, -0.0, -0.0, -6.32, -6.36, -8.05, -10.04, -6.36, -6.14, -5.34, -7.37, -7.81, -7.2, -8.6, -8.87, -9.83, -11.12, -10.04, -7.71, -6.23, -1.32, 0.0, 1.98, -8.94, -6.64, -2.83, -4.71, -5.95, -6.71, 0.0, 5.21, 6.32, 5.6, 6.36, 6.71, 6.0, 0.0, -2.09, -3.82, -4.4, -4.71, -5.76, -5.1, -5.15, -6.7, -7.51, -7.28, -4.78, -4.18, -4.54, -4.6, -2.4, 0.0, 0.0, 0.0, -0.76, -1.7, -3.47, -3.72, -3.22, -5.36, -12.38, -12.27, -12.27, -12.27, -12.42, -12.81, -12.81, -12.65, -12.53, -12.53, -12.53, -12.27, -12.47, -12.54, -12.96, -12.4, -11.38, -10.25, -10.75, -10.84, -10.18, -9.9, -9.17, -8.61, -9.66, -10.28, -1.73, -0.0, 1.07, 1.16, 1.07, 0.57, -0.0, -0.0, 0.0, 0.0, -8.49, -5.37, -0.0, -5.06, -7.15, -7.6, -8.89, -7.98, -5.81, -7.6, -7.6, -6.36, -6.36, -7.81, -9.11, -9.83, -9.6, -7.54, -7.15, -8.05, -6.71, -4.0, -1.41, 5.06, -0.0, -6.7, -6.52, -7.21, -7.21, -6.64, -6.36, 0.0, 4.43, 6.94, 6.71, 7.15, 6.71, 5.51, -1.98, -2.82, -3.6, -3.99, -4.03, -4.46, -5.37, -5.49, -5.86, -5.18, -5.06, -6.83, -5.69, -3.25, 0.0, 0.0, 0.0, -0.74, -1.52, -1.47, -0.89, -2.49, -4.11, -4.11, -12.38, -12.27, -12.27, -12.27, -12.27, -12.42, -12.42, -12.65, -12.93, -12.53, -12.27, -12.65, -12.37, -12.74, -12.96, -12.98, -11.72, -11.06, -10.68, -10.34, -10.43, -10.12, -9.02, -8.18, -8.67, -10.48, -9.83, -3.2, -0.0, -0.0, 0.66, 1.13, 1.4, 5.06, 7.15, 0.0, -3.4, -0.0, -0.0, -5.37, -6.71, -6.51, -7.15, -6.71, 0.0, 8.05, 7.6, 0.0, -6.71, -6.71, -6.71, -7.06, -6.4, -4.74, -6.26, -6.26, -6.61, -6.64, -3.6, 0.0, 0.0, -8.05, -7.15, -7.01, -6.88, -6.79, -5.81, -8.05, 7.6, 6.71, 7.06, 6.61, 6.26, 6.79, 0.0, 0.0, 0.0, -2.17, -4.0, -4.71, -2.83, -3.6, -2.12, -2.4, -1.75, -1.14, -4.14, 0.0, 1.73, 1.03, 0.0, -1.41, -1.7, -1.52, -1.65, -2.47, -3.63, -3.63, -12.38, -12.27, -12.27, -11.88, -12.27, -12.42, -12.42, -12.65, -12.65, -12.65, -12.65, -12.65, -12.37, -12.45, -12.82, -12.63, -11.69, -11.07, -10.75, -10.37, -9.66, -9.37, -8.66, -7.09, -6.44, -6.48, -5.77, -2.19, 0.0, 0.0, 0.0, 5.2, 3.72, 6.4, 5.51, 3.0, -0.0, -0.0, 0.0, -6.71, -5.81, -5.09, -4.74, -6.71, 0.0, 8.05, 8.05, 0.0, 5.06, 5.06, 0.0, 0.0, 7.15, 7.15, 7.15, 0.0, -3.6, 0.0, 0.0, 0.0, 0.0, 6.01, 0.0, 0.0, -7.15, -6.26, -7.15, -7.15, 0.0, 6.71, 6.4, -0.0, 0.0, 0.0, -0.0, 7.6, 9.39, 10.28, 0.0, 0.0, 0.0, 0.0, -1.32, -1.55, -1.49, -1.03, 1.7, 1.08, 0.0, -0.83, -2.59, -1.84, -2.8, -3.55, -3.45, -3.55, -4.11, -4.11, -12.09, -12.27, -12.27, -11.88, -11.88, -12.27, -12.42, -12.27, -12.65, -12.65, -12.65, -12.37, -12.37, -12.45, -12.45, -11.58, -11.36, -11.05, -9.8, -9.42, -9.08, -8.74, -8.05, -6.63, -4.39, -3.25, -2.63, -1.97, -1.04, -1.28, 0.0, 3.2, 4.92, 3.04, 3.32, 4.46, 3.79, 0.0, -6.26, -6.26, -6.26, -6.4, -5.06, -7.21, -8.49, 0.0, 0.0, 0.0, 8.05, 8.05, 7.2, 7.2, 6.8, 7.6, 0.0, 0.0, 0.0, 6.32, 0.0, 0.0, 0.0, 6.01, 5.69, 7.6, 7.15, 6.26, 0.0, -7.15, -7.6, -7.15, -5.37, -6.32, -7.07, -6.32, -2.28, 6.32, 9.39, 9.54, 8.8, 8.49, 5.06, 0.0, -1.63, -2.35, -2.82, -3.68, -4.22, 0.0, -2.12, -3.4, -2.97, -1.95, -2.64, -4.42, -4.03, -3.72, -3.63, -3.63, -12.27, -12.27, -11.88, -11.88, -11.88, -11.88, -12.27, -12.42, -12.65, -12.65, -12.65, -12.37, -12.37, -12.09, -12.09, -12.65, -10.69, -11.05, -9.5, -7.78, -7.29, -8.18, -8.31, -7.95, -5.8, -5.18, -3.19, -4.11, -4.24, -2.52, 0.0, 5.69, 6.26, 2.97, 2.5, 3.14, 3.16, 2.0, -3.0, -7.2, -6.4, -0.0, -0.0, -0.0, -0.0, -0.0, 8.49, 0.0, 8.49, 8.49, 6.01, 5.69, 5.69, 7.6, 5.69, 0.0, 0.0, 0.0, 0.0, 0.0, 0.0, 0.0, 8.05, 6.71, 6.51, 5.94, 0.0, -5.72, -5.93, -6.32, -3.11, -3.98, -2.37, -8.53, -7.9, -0.0, 9.83, 2.97, 2.17, 2.54, 0.0, 0.0, -2.8, -4.19, -5.15, -6.45, -7.33, -8.59, -6.98, -6.95, -4.68, -3.8, -4.26, -5.37, -5.06, -4.29, -4.43, -4.43, -12.27, -12.27, -11.88, -11.88, -11.88, -11.88, -12.27, -12.42, -12.54, -12.65, -12.37, -12.37, -12.27, -12.09, -12.09, -11.52, -11.58, -11.23, -9.62, -8.67, -8.43, -8.35, -8.96, -9.91, -10.96, -9.8, -9.33, -7.19, -7.2, -4.15, 6.95, 8.49, 5.6, 2.84, 1.61, 1.61, 2.3, 2.4, -0.0, -0.0, -0.0, 4.74, 6.26, 5.2, 4.11, -0.0, -0.0, 8.49, 8.49, 8.05, 8.05, 8.05, 7.6, 8.05, 5.06, 3.6, 0.0, 0.0, 0.0, 0.0, 0.0, 8.05, 5.69, 5.37, 5.6, 4.43, 0.0, -3.97, -2.4, 1.4, 2.7, 3.06, 1.77, 0.0, -5.28, -8.53, -9.58, -8.23, -4.46, 0.0, 0.0, 0.0, 0.0, -2.6, -3.76, -4.74, -4.81, -4.46, -7.9, -7.15, -6.6, -6.32, -5.76, -5.77, -6.07, -5.72, -5.43, -5.43, -11.72, -12.27, -11.88, -11.88, -11.88, -11.88, -12.27, -12.16, -12.54, -12.54, -12.37, -12.37, -12.27, -12.09, -12.16, -12.16, -11.87, -11.16, -10.23, -11.8, -12.52, -10.3, -10.3, -10.4, -10.75, -10.43, -10.12, -10.58, -9.5, -10.73, 5.37, 4.43, 3.48, 1.4, 1.6, 0.79, 0.88, 0.96, 1.3, 1.52, 3.0, 4.74, 5.6, 5.2, 2.4, -0.0, -0.0, 6.01, 8.49, 8.05, 7.6, 7.6, 7.6, 7.6, 5.69, 3.4, 2.06, 2.06, 0.0, 0.0, 0.0, 8.05, 5.69, 5.37, -0.0, -0.0, -0.0, 0.0, 4.22, 6.28, 6.32, 6.0, 4.36, 0.92, -4.65, -10.04, -10.62, -10.27, -8.72, -7.6, -5.06, 0.0, 2.8, 5.36, 5.81, 0.0, -5.36, -5.2, -2.6, -3.72, -6.91, -7.76, -6.83, -5.77, -6.13, -6.4, -5.58, -5.58, -11.72, -11.88, -11.88, -11.88, -11.88, -11.88, -11.62, -11.99, -12.54, -12.54, -12.37, -12.37, -12.27, -12.09, -12.0, -11.87, -11.87, -11.23, -11.16, -11.88, -12.36, -12.07, -11.06, -11.06, -11.06, -10.7, -9.6, -9.8, -9.97, -7.6, 3.16, 2.84, -0.0, 1.8, 1.41, -0.0, -0.0, -0.0, -0.0, 1.84, 1.84, 4.11, 3.79, 2.4, 2.2, -0.0, -0.0, 5.69, 5.69, 7.6, 7.15, 7.6, 7.6, 7.6, 5.37, 5.69, 5.69, 6.01, 0.0, 0.0, 7.6, 7.21, 7.21, 3.4, -0.0, -0.0, -0.0, -0.0, 6.71, 7.81, 7.15, 6.42, 4.88, 4.02, -7.37, -10.89, -11.27, -11.21, -10.84, -8.94, -7.15, 0.0, 4.43, 6.26, 5.6, 1.98, -1.84, -5.81, -5.06, -3.45, -6.23, -7.61, -7.27, -5.77, -4.93, -4.93, -5.34, -5.34, -11.72, -11.72, -11.88, -11.88, -11.88, -11.88, -11.62, -11.99, -12.27, -12.54, -12.74, -12.74, -12.27, -12.09, -11.8, -11.87, -11.58, -10.94, -11.23, -11.28, -12.03, -11.06, -10.44, -10.44, -11.09, -10.4, -10.37, -8.87, -7.9, -5.69, 0.0, 0.0, 0.0, -0.0, -0.0, -0.0, -0.0, -0.0, -0.0, 1.84, 2.98, 2.98, 2.98, 2.73, 1.41, 1.55, 3.6, 3.4, 5.06, 5.06, 7.6, 7.6, 7.6, 7.6, 7.6, 7.6, 7.15, 8.05, 0.0, 0.0, 7.6, 8.05, 8.05, 7.6, 5.06, 4.74, 0.0, 0.0, 0.0, 0.0, 0.0, 0.0, 6.26, 6.26, -5.36, -8.9, -10.5, -10.38, -9.63, -9.39, -6.51, -7.15, 0.0, 0.0, 0.0, -0.0, -6.36, -7.15, -6.99, -6.64, -7.55, -8.24, -7.94, -3.79, -3.82, -4.57, -4.46, -4.46, -11.72, -11.72, -11.88, -11.88, -11.88, -11.62, -11.62, -11.99, -12.09, -12.27, -12.45, -12.45, -12.45, -12.09, -12.16, -11.52, -11.28, -11.28, -10.94, -10.72, -10.44, -10.1, -9.46, -9.15, -9.8, -10.43, -10.07, -10.12, -7.95, -6.14, -2.97, 0.0, 0.0, 0.0, 0.0, -0.0, -0.0, -0.0, -0.0, 1.98, 3.22, 2.98, 2.2, 2.2, 2.0, 0.88, 3.4, 3.4, 5.37, 5.69, 6.01, 8.05, 7.6, 7.6, 7.6, 7.15, 6.26, -0.0, 0.0, 0.0, 0.0, 0.0, 0.0, 0.0, 6.26, 5.36, 0.0, 0.0, 0.0, 0.0, -7.15, -5.2, 0.0, 0.0, -5.81, -5.81, -7.06, -8.05, -7.67, -7.21, -6.71, -6.26, -6.71, -6.71, -7.6, -7.15, -7.15, -7.1, -6.57, -5.46, -6.64, -5.72, -4.84, -2.48, -1.8, -3.48, -3.78, -3.78, -11.72, -11.72, -11.72, -11.72, -11.34, -11.24, -11.62, -11.99, -11.72, -12.09, -12.45, -12.45, -12.45, -12.45, -11.93, -11.63, -10.94, -10.94, -10.94, -10.72, -10.75, -9.79, -9.44, -9.09, -8.46, -9.46, -10.12, -9.8, -8.85, -6.71, -5.1, -3.65, -2.17, -3.4, -5.06, 0.0, -0.0, -0.0, -0.0, -0.0, 1.84, 2.98, 2.2, 1.83, 1.83, 0.81, 0.96, 1.1, 2.66, 4.29, 4.02, 6.01, 5.37, 7.6, 7.6, 7.15, 6.71, 4.11, -0.0, 0.0, 0.0, 0.0, 0.0, 0.0, 5.36, 7.15, 0.0, 0.0, 0.0, -7.15, -7.2, -5.37, -2.66, 0.0, 0.0, 0.0, -2.6, -4.74, -4.83, -4.47, -5.75, -6.14, -6.26, -6.71, -7.6, -7.15, -7.15, -7.15, -6.88, -5.75, -5.6, -5.37, -3.49, -1.3, -1.83, -2.73, -3.43, -3.43, -11.72, -11.72, -11.34, -11.34, -11.07, -11.07, -11.62, -11.72, -12.09, -12.09, -11.8, -12.45, -12.45, -12.82, -12.28, -11.63, -11.28, -10.69, -11.03, -11.05, -11.06, -10.43, -9.79, -9.14, -8.69, -9.08, -9.4, -9.48, -8.85, -7.72, -6.2, -4.8, -3.87, -3.32, -4.46, -5.69, -8.05, -3.6, -0.0, -0.0, -0.0, 1.84, 1.3, 1.05, 0.88, 0.88, 0.96, 1.1, 2.26, 3.68, 4.47, 4.43, 6.8, 6.8, 6.8, 6.8, 6.4, 6.71, 0.0, -7.6, -7.6, 0.0, 5.36, 3.58, 5.81, 0.0, 8.94, 8.49, -0.0, -7.15, -6.8, -7.51, -2.99, -0.89, 0.0, 2.06, 2.06, -1.84, -4.47, -4.75, -5.06, -5.37, -5.81, -1.98, -4.74, -6.79, -7.6, -7.6, -7.15, -6.14, -5.94, -3.47, -3.45, -2.8, -1.94, -2.4, -2.44, -2.44, -11.34, -11.34, -11.34, -11.07, -11.07, -11.44, -11.44, -11.99, -12.09, -11.8, -11.8, -12.16, -12.16, -12.52, -12.28, -11.63, -11.28, -11.03, -11.03, -11.05, -11.37, -10.74, -9.79, -9.14, -8.75, -8.96, -9.7, -9.48, -8.85, -7.72, -6.98, -6.42, -5.64, -4.56, -5.2, -5.31, -6.79, -8.06, -8.49, -5.37, -0.0, -0.0, -0.0, -0.0, -0.0, -0.0, 0.96, 1.98, 2.49, 3.45, 4.19, 4.43, 4.11, 3.48, 4.43, 4.74, 5.37, 4.74, 0.0, 0.0, -8.49, 0.0, 5.69, 4.11, 0.0, 0.0, 0.0, 0.0, -5.37, -7.15, -7.37, -6.9, -6.01, -3.17, 0.0, 2.67, 2.64, 0.0, -5.06, -5.59, -5.06, -5.4, 1.7, 2.16, -0.0, -5.21, -7.45, -7.37, -6.4, -5.36, -5.01, -6.26, -3.91, -4.74, -3.64, -3.12, -2.66, -2.66, -11.34, -11.34, -11.34, -11.07, -11.07, -11.44, -11.44, -11.72, -12.09, -11.8, -11.8, -12.16, -12.16, -12.52, -12.52, -12.28, -11.28, -11.28, -11.36, -11.37, -11.06, -10.44, -10.44, -9.79, -9.14, -9.66, -9.6, -9.67, -9.17, -8.53, -6.98, -6.42, -5.86, -5.13, -4.96, -5.2, -6.32, -6.79, -8.24, -8.05, -5.37, -0.0, -0.0, -0.0, -0.0, -0.0, -0.0, 2.12, 2.49, 3.22, 3.91, 3.63, 3.79, 3.48, 3.48, 4.43, 5.37, 5.06, 6.26, 0.0, -0.0, -0.0, 7.6, 5.37, 6.32, 0.0, 0.0, 0.0, -7.6, -7.6, -7.81, -6.9, -7.07, -7.44, -3.91, 0.0, 1.41, 0.0, -6.36, -5.75, -5.24, -5.81, 2.76, 2.68, 1.55, -2.4, -4.89, -4.47, -4.29, -5.72, -6.4, -6.71, -4.89, -4.46, -4.81, -4.11, -4.07, -4.07, -11.34, -11.34, -11.34, -11.07, -11.07, -11.44, -11.44, -11.72, -12.09, -12.09, -11.8, -11.87, -11.87, -12.22, -12.52, -12.28, -11.63, -11.28, -11.63, -11.66, -11.06, -10.44, -10.44, -9.8, -9.14, -9.76, -9.66, -9.7, -9.02, -8.07, -6.98, -6.42, -5.86, -5.59, -5.49, -5.89, -5.82, -6.32, -7.67, -8.24, -7.6, -4.74, -0.0, -2.12, -3.2, -0.0, -0.0, 1.52, 2.8, 3.45, 4.43, 3.79, 3.84, 3.84, 3.48, 3.49, 6.0, 6.4, 5.6, -0.0, -0.0, -0.0, -0.0, 0.0, 0.0, 8.94, 6.32, 0.0, 0.0, -7.2, -8.05, -4.14, -4.71, -7.28, -8.4, -8.22, -5.94, -5.36, -6.71, -4.65, -4.65, -5.81, 4.43, 3.84, 4.0, 2.0, -2.98, -4.43, -6.23, -6.58, -6.71, -6.71, -6.07, -5.21, -5.43, -5.09, -4.43, -4.43, -11.34, -11.34, -11.34, -11.07, -11.07, -11.44, -11.44, -11.52, -12.09, -12.09, -12.09, -11.52, -11.87, -12.22, -12.22, -12.22, -11.97, -11.63, -11.58, -11.33, -11.06, -10.75, -10.44, -10.44, -9.8, -9.46, -9.76, -9.7, -9.06, -7.64, -6.57, -6.05, -5.78, -5.86, -5.86, -6.24, -6.18, -6.64, -7.44, -7.28, -7.63, -7.15, -2.6, -2.98, -2.2, -0.0, -0.0, -0.0, 1.27, 2.41, 2.68, 3.16, 3.48, 3.84, 3.84, 3.49, 3.49, 3.49, 4.43, 2.8, -0.0, -0.0, -0.0, -0.0, 6.01, 8.05, 8.05, 0.0, -0.0, -6.8, -8.05, -5.93, -3.17, -3.32, -7.27, -8.42, -8.18, -7.15, -5.36, -5.94, -3.93, -5.6, 4.74, 4.65, 3.45, 3.22, 1.8, -4.0, -4.47, -4.47, -4.92, -5.81, -5.36, -6.58, -6.0, -5.82, -4.75, -4.75, -11.34, -11.34, -11.34, -11.07, -11.07, -11.44, -11.16, -11.52, -12.09, -12.09, -12.09, -11.8, -11.87, -12.22, -12.22, -12.22, -11.97, -11.63, -11.58, -11.58, -11.03, -11.03, -10.75, -10.44, -10.44, -9.76, -9.76, -9.4, -8.3, -7.73, -6.97, -6.71, -5.95, -6.23, -6.28, -6.28, -6.24, -7.06, -7.13, -7.44, -6.9, -6.79, -6.26, -4.8, -2.4, -4.22, -5.06, -2.0, 1.13, 2.23, 2.84, 3.58, 3.58, 3.48, 3.84, 4.22, 3.83, 3.84, 3.43, 2.8, -0.0, -2.4, -3.8, -0.0, 8.49, 7.6, 4.74, -5.37, -6.26, -5.21, -5.51, -5.59, -4.19, -0.85, -2.31, -5.63, -6.83, -6.32, -6.36, -5.81, -6.71, -4.92, 3.79, 4.46, 3.79, 3.93, 3.22, 2.84, 1.6, -2.53, -3.2, -4.24, -5.09, -5.81, -6.61, -6.0, -5.82, -5.82, -11.16, -11.16, -11.34, -11.07, -11.07, -11.44, -11.16, -11.52, -12.09, -12.09, -12.09, -11.8, -11.8, -11.58, -11.92, -11.92, -11.97, -11.97, -11.97, -11.33, -11.03, -11.03, -11.06, -11.06, -10.44, -10.11, -10.43, -9.85, -7.95, -7.15, -7.36, -7.36, -6.81, -6.17, -6.23, -6.58, -6.95, -7.35, -7.51, -7.28, -7.07, -7.06, -6.36, -5.81, -4.43, -5.06, -4.74, -1.98, -0.0, 4.43, 4.84, 3.79, 3.93, 3.22, 3.6, 3.93, 3.93, 3.58, 2.79, 2.0, -0.0, -0.0, -0.0, 0.0, 8.49, 8.05, 7.15, -7.6, -5.95, -4.74, -4.98, -7.06, -8.77, -2.83, -0.82, -2.34, -4.2, -4.47, -2.6, -3.47, -8.05, 0.0, 0.0, 6.26, 7.6, 5.37, 3.76, 2.84, 2.95, 1.8, -0.0, -1.13, -3.72, -5.2, -6.26, -6.61, -6.0, -6.0, -11.16, -11.16, -11.16, -11.07, -11.07, -11.44, -11.16, -11.52, -11.88, -12.09, -12.09, -11.8, -11.8, -11.52, -11.92, -11.92, -11.66, -11.66, -11.97, -11.33, -11.66, -11.36, -11.36, -10.75, -10.75, -10.43, -10.44, -10.18, -8.87, -8.02, -7.51, -7.88, -6.63, -6.93, -6.58, -6.31, -7.31, -7.35, -7.41, -7.51, -7.28, -6.7, -6.64, -6.36, -6.26, -6.4, -5.69, -0.0, -0.0, 6.4, 5.58, 5.21, 4.8, 4.4, 4.0, 3.9, 3.9, 4.0, 2.84, 2.0, 1.19, -0.0, 0.0, 7.6, 8.05, 7.45, 7.37, 7.15, -5.69, -4.46, -5.69, -8.49, -8.05, -7.07, -3.98, -1.91, -2.7, -2.4, 0.0, 1.18, 1.4, 0.0, 0.0, 0.0, 0.0, 0.0, 5.06, 1.98, 3.22, 2.68, 2.48, -0.0, -1.98, -3.72, -4.92, -6.26, -6.14, -6.14, -10.79, -10.79, -11.16, -10.87, -11.07, -11.44, -11.16, -11.52, -11.52, -11.88, -12.09, -11.8, -11.8, -11.52, -11.58, -11.92, -11.66, -11.33, -11.33, -11.37, -11.37, -11.36, -11.06, -10.75, -10.44, -10.74, -10.77, -10.13, -10.13, -9.17, -8.19, -7.28, -7.28, -6.63, -6.93, -6.92, -6.64, -6.98, -7.02, -7.41, -7.15, -6.55, -6.32, -5.72, -5.58, -6.71, -7.6, 0.0, 0.0, 8.05, 6.8, 6.36, 5.94, 5.64, 5.2, 4.34, 4.02, 4.02, 3.82, 3.82, -0.0, -0.0, 0.0, 8.05, 6.79, 6.4, 6.4, 5.58, 0.0, -8.05, -5.69, -8.94, -8.24, -6.82, -7.59, -4.9, -1.84, 3.98, 6.7, 4.88, 2.49, 0.0, -1.45, -3.25, -3.82, -3.4, -2.8, 0.0, 3.48, 3.16, 2.23, 1.98, -0.0, -3.2, -4.47, -5.36, -5.73, -5.73, -10.79, -10.79, -11.16, -10.87, -10.87, -11.07, -11.16, -11.52, -11.52, -11.88, -12.09, -12.09, -11.8, -11.8, -11.52, -11.92, -11.58, -11.33, -11.33, -11.66, -11.37, -11.37, -11.06, -11.06, -10.75, -10.74, -10.77, -10.76, -9.8, -9.17, -8.21, -6.98, -6.98, -7.28, -6.93, -6.95, -6.62, -7.31, -7.02, -6.68, -6.73, -6.44, -5.84, -5.59, -5.72, -5.58, -6.4, 0.0, 0.0, 8.05, 7.6, 7.15, 7.15, 6.26, 5.81, 5.36, 4.92, 4.47, 4.02, 4.47, 4.0, 5.37, 5.37, 5.69, 5.69, 5.69, 5.06, 5.06, -0.0, -5.37, -5.06, -8.49, -7.15, -5.89, -6.31, -4.32, 0.0, 6.08, 6.67, 4.65, 2.19, 0.0, -2.46, -2.69, -2.99, -2.32, -2.16, -1.7, 0.0, 0.0, 4.47, 3.6, 2.21, -0.0, -4.02, -4.47, -5.29, -5.29, -10.79, -10.79, -11.16, -10.87, -10.87, -10.87, -11.16, -11.16, -11.52, -11.23, -11.88, -12.09, -11.8, -11.8, -11.52, -11.87, -11.58, -11.33, -11.03, -11.36, -11.06, -11.37, -11.06, -11.06, -11.06, -10.74, -10.77, -11.1, -10.13, -9.17, -8.21, -7.6, -6.98, -6.98, -7.28, -6.64, -6.95, -6.95, -7.68, -7.02, -6.68, -6.06, -5.77, -4.58, -4.47, -4.29, -3.97, -3.4, 0.0, 0.0, 7.6, 7.15, 6.71, 6.26, 5.81, 5.36, 4.92, 4.47, 4.02, 4.47, 4.47, 4.09, 5.69, 3.2, 8.05, 0.0, 5.69, 7.2, 7.2, -0.0, -6.01, -7.15, -5.21, -2.04, -1.76, -2.1, 1.18, 2.94, 3.04, 0.89, 0.0, -1.05, -1.03, -2.73, -1.55, -1.19, -0.96, -0.79, -0.88, 0.0, 0.0, 0.0, 0.0, 0.0, -4.02, -4.47, -4.77, -4.77, -10.79, -10.79, -11.16, -10.87, -10.87, -10.87, -10.94, -11.16, -11.23, -11.23, -11.23, -12.09, -11.8, -11.8, -11.8, -11.87, -10.99, -10.72, -11.05, -11.06, -11.06, -11.06, -11.06, -11.06, -10.75, -11.07, -11.1, -11.44, -10.13, -9.8, -8.53, -7.61, -7.32, -7.27, -6.98, -6.64, -6.65, -6.62, -6.98, -7.33, -6.68, -5.69, -5.06, -5.1, -3.33, -3.97, -3.91, -3.4, -2.4, 0.0, 5.06, 6.0, 6.36, 6.26, 5.81, 5.36, 4.92, 4.47, 4.47, 4.47, 4.47, 4.92, 5.69, 5.06, 0.0, 0.0, 8.05, 7.81, 6.7, 5.37, -0.0, -5.06, 0.0, 1.69, 0.0, -1.84, -3.3, -3.49, -3.42, -3.19, -2.71, -1.05, -0.88, 0.0, 0.0, 0.0, 0.0, 0.0, 0.0, 0.0, 0.0, 0.0, 0.0, 0.0, -2.84, -4.0, -4.09, -4.24, -10.59, -10.59, -10.59, -10.87, -10.87, -10.59, -10.94, -10.94, -11.23, -11.23, -11.23, -11.23, -11.23, -11.44, -11.8, -11.52, -10.94, -10.72, -10.75, -11.06, -10.74, -10.74, -10.39, -10.72, -11.06, -11.4, -10.77, -11.09, -10.82, -9.8, -8.85, -7.93, -7.32, -7.32, -7.27, -7.28, -6.65, -6.95, -6.64, -6.98, -6.68, -6.35, -5.38, -4.83, -3.55, -3.4, -3.77, -3.4, -3.4, 0.0, 0.0, 4.74, 5.6, 5.6, 5.2, 5.36, 4.92, 4.47, 4.47, 4.47, 4.47, 4.92, 8.05, 7.15, 0.0, 0.0, 8.49, 7.21, 7.21, 7.6, -0.0, -0.0, 0.0, 0.0, 0.0, 0.0, -3.52, -6.24, -7.63, -6.77, -4.2, -2.09, 0.0, 0.81, 1.55, 1.55, 0.76, 0.76, 0.61, 0.0, 0.0, -0.73, -1.08, -2.23, -2.23, -3.16, -3.79, -4.09, -10.59, -10.59, -10.59, -10.65, -10.87, -10.59, -10.59, -10.94, -11.23, -11.23, -11.23, -11.23, -11.23, -11.44, -11.8, -11.8, -10.94, -10.69, -11.05, -10.75, -10.74, -10.74, -10.39, -10.42, -10.42, -10.76, -11.1, -10.73, -10.47, -10.13, -9.5, -8.53, -7.61, -7.61, -7.32, -6.98, -6.97, -6.65, -6.31, -6.64, -6.32, -6.35, -5.72, -5.09, -5.1, -4.26, -4.26, -4.87, -4.56, -2.26, 0.0, 3.0, 4.43, 5.6, 5.2, 4.8, 4.4, 4.24, 4.24, 4.47, 4.47, 4.92, 5.36, 8.05, 0.0, 8.05, 6.8, 6.8, 6.8, 8.05, 7.6, -0.0, -8.49, -5.36, 0.0, 1.62, 0.85, -1.84, -4.83, -6.05, -3.33, -0.81, 0.0, 1.6, 1.47, 1.41, 0.78, 0.78, 0.0, 0.0, 0.0, -0.7, -1.66, -2.15, -2.84, -3.93, -4.29, -3.79, -10.59, -10.59, -10.59, -10.3, -10.65, -10.59, -10.59, -10.94, -10.65, -10.99, -11.23, -11.23, -11.23, -11.23, -11.44, -11.8, -11.23, -10.36, -11.05, -10.75, -10.44, -10.44, -10.39, -10.39, -10.42, -10.76, -10.77, -11.09, -10.12, -10.12, -9.5, -8.85, -7.9, -7.61, -7.32, -6.98, -6.97, -6.95, -6.62, -6.28, -6.28, -6.01, -5.69, -5.38, -5.72, -6.64, -4.65, -4.11, -3.76, -3.72, 0.0, 2.8, 2.8, 2.8, 4.11, 4.8, 4.8, 4.24, 4.66, 4.66, 4.24, 4.47, 7.6, 7.6, 8.05, 8.05, 7.6, 8.49, 7.6, 8.05, 8.05, -5.37, -8.49, -7.6, -3.8, 1.25, 2.12, 0.74, -0.72, -2.2, -2.0, 0.96, 1.94, 2.06, 1.49, 0.8, 0.0, 0.0, 0.0, 0.0, 0.0, -0.95, -1.41, -2.15, -3.22, -3.58, -4.6, -4.6, -10.59, -10.59, -10.59, -10.3, -10.3, -10.59, -10.59, -10.94, -10.65, -10.65, -10.88, -11.23, -11.23, -11.23, -11.23, -11.44, -10.88, -10.65, -10.69, -10.75, -10.75, -10.44, -10.13, -9.79, -10.1, -10.43, -10.43, -10.13, -10.12, -10.12, -9.5, -8.85, -7.9, -7.9, -7.26, -7.27, -7.28, -6.95, -6.58, -6.62, -5.94, -5.98, -5.03, -5.35, -5.94, -5.59, -4.16, -3.63, -2.95, -2.4, 0.0, 0.0, 2.6, 2.6, 2.4, 2.4, 3.48, 3.48, 4.09, 4.09, 4.66, 4.66, 4.92, 8.05, 8.05, 8.05, 8.49, 8.05, 7.15, 7.6, 8.05, -5.37, -8.94, -7.6, -7.6, -3.68, -0.78, 0.0, 0.0, 1.18, 3.45, 3.55, 3.7, 2.31, 1.54, 0.0, 0.0, -0.64, -0.69, -0.74, -0.89, -1.84, -1.47, -2.79, -3.83, -4.57, -4.57, -4.57, -10.59, -10.59, -10.59, -10.3, -10.3, -10.35, -10.59, -10.59, -10.65, -10.65, -10.65, -10.88, -11.23, -11.23, -11.23, -11.44, -10.65, -10.65, -10.94, -11.03, -10.75, -10.45, -10.45, -10.13, -10.13, -9.8, -10.11, -10.09, -9.8, -9.46, -9.17, -8.53, -7.9, -7.9, -7.26, -7.27, -7.58, -7.28, -6.95, -6.3, -5.63, -5.36, -5.0, -4.73, -4.56, -4.37, -3.09, -2.64, -1.98, -0.96, -1.05, 0.0, 0.0, 0.0, 0.0, 1.55, 2.73, 2.73, 2.98, 3.79, 4.46, 4.09, 4.66, 7.6, 7.6, 8.05, 8.49, 8.49, 6.4, 7.6, 5.37, -3.6, -7.81, -8.49, -7.63, -6.7, -3.99, -0.99, 1.07, 5.2, 7.51, 7.69, 5.55, 3.44, 0.89, 0.0, -0.67, -1.3, -1.41, -2.2, -2.2, -2.2, -2.04, -3.58, -4.15, -4.92, -4.92, -4.92, -10.01, -10.01, -10.59, -10.3, -10.3, -10.01, -10.35, -10.59, -10.3, -10.65, -10.65, -10.65, -11.23, -11.23, -11.23, -11.44, -10.65, -10.65, -10.69, -10.72, -10.75, -10.75, -10.45, -10.45, -10.45, -10.13, -10.09, -9.78, -9.48, -9.15, -8.85, -8.53, -7.9, -7.9, -7.9, -7.56, -7.58, -7.28, -6.93, -6.95, -6.3, -5.63, -4.96, -4.71, -4.05, -4.07, -2.9, -2.31, -2.26, -1.73, -0.95, -1.03, 0.0, 0.0, 0.0, 1.3, 1.3, 2.4, 2.4, 2.98, 3.22, 3.79, 4.46, 4.66, 8.05, 8.05, 6.01, 6.8, 7.6, 6.79, 6.01, -0.0, -7.63, -8.49, -7.89, -6.79, -4.6, 0.0, 2.71, 6.33, 9.6, 9.5, 7.32, 3.46, 1.11, 0.0, -2.46, -2.47, -2.88, -2.66, -3.52, -2.66, -2.98, -4.4, -4.34, -3.93, -3.93, -3.93, -10.01, -10.01, -10.01, -10.3, -10.3, -10.01, -10.35, -10.59, -10.3, -10.65, -10.65, -10.65, -11.23, -11.23, -11.23, -11.23, -10.65, -10.65, -10.99, -11.03, -10.43, -10.43, -10.75, -10.45, -10.13, -10.43, -10.42, -9.48, -9.46, -8.85, -8.85, -8.54, -7.9, -7.9, -7.9, -7.56, -7.27, -7.28, -6.93, -6.64, -6.0, -6.01, -5.36, -4.71, -4.28, -3.8, -3.27, -2.9, -2.31, -2.4, -1.55, -1.63, -0.95, -1.03, 0.0, 0.0, 1.05, 1.41, 2.6, 2.6, 2.6, 3.22, 3.22, 4.46, 5.09, 6.01, 6.01, 5.37, 7.6, 5.37, 2.82, -0.0, -1.95, -4.46, -6.01, -0.0, 0.0, 2.97, 4.88, 7.27, 8.27, 8.31, 6.09, 4.51, 3.47, 1.52, -1.39, -4.44, -4.87, -5.59, -3.49, -2.51, -3.16, -4.47, -2.95, -1.83, -1.83, -1.83, -10.01, -10.01, -10.01, -10.06, -10.3, -10.3, -10.01, -10.35, -10.3, -10.3, -10.36, -10.36, -10.88, -11.23, -11.23, -11.23, -10.3, -10.3, -10.99, -10.69, -10.72, -10.43, -10.43, -10.13, -10.44, -10.43, -10.42, -9.8, -9.78, -9.17, -8.85, -8.54, -8.24, -7.61, -7.61, -7.26, -7.56, -7.58, -6.93, -6.64, -6.0, -5.72, -5.36, -4.96, -4.28, -3.8, -3.8, -3.51, -3.15, -2.99, -2.4, -2.51, -1.73, -1.84, 0.0, 0.0, 0.0, 1.14, 1.23, 1.52, 2.8, 2.8, 3.22, 4.84, 4.46, 7.6, 5.69, 8.05, 8.05, -0.0, 3.6, 1.58, -0.0, -0.0, -0.0, 2.83, 8.94, 7.51, 7.21, 8.15, 7.87, 6.7, 6.94, 7.36, 6.96, 3.77, 0.0, -3.4, -4.43, -2.68, -2.15, -2.41, -3.72, -4.47, -4.77, -4.09, -4.09, -4.09, -10.01, -10.01, -10.01, -9.71, -10.06, -10.3, -10.01, -10.35, -10.06, -10.3, -10.36, -10.36, -10.36, -11.23, -11.23, -10.88, -10.59, -10.3, -10.65, -10.69, -10.72, -10.43, -10.13, -10.13, -10.44, -10.43, -10.12, -9.8, -9.78, -9.48, -9.17, -8.24, -8.24, -7.61, -7.61, -7.26, -7.26, -7.27, -7.22, -6.93, -6.27, -6.0, -5.63, -4.96, -4.96, -4.28, -4.07, -3.51, -3.8, -2.99, -3.27, -2.4, -2.51, -1.73, -0.89, 0.0, 0.0, 0.0, 1.23, 1.23, 1.52, 1.52, 3.47, 4.11, 5.09, 8.05, 7.2, 7.2, 5.69, 0.0, 8.49, 4.71, 1.67, 1.75, 4.0, 6.32, 8.48, 8.77, 8.22, 8.22, 7.64, 6.83, 8.3, 9.7, 8.49, 5.69, 2.99, 0.0, -3.48, -1.55, -1.27, -1.27, -1.8, -4.24, -4.92, -4.92, -4.92, -4.92, -10.01, -10.01, -10.01, -9.71, -9.71, -10.3, -10.01, -10.35, -10.06, -10.3, -10.36, -10.36, -10.36, -10.94, -10.88, -10.3, -10.59, -10.3, -10.65, -10.69, -10.4, -10.43, -10.43, -10.13, -10.13, -10.43, -9.8, -9.8, -9.8, -9.48, -8.87, -8.54, -8.24, -7.61, -7.61, -6.97, -7.26, -6.9, -6.9, -6.63, -6.24, -6.27, -5.6, -5.63, -4.96, -4.5, -4.56, -4.07, -3.8, -3.6, -3.27, -3.09, -2.67, -2.51, -0.95, -0.89, 0.0, 0.0, 0.0, 0.0, 1.32, 1.63, 1.98, 4.11, 5.09, 7.15, 6.8, 5.69, 5.69, 5.69, 0.0, 6.32, 4.71, 2.06, 4.71, 6.01, 8.24, 8.05, 8.38, 7.81, 7.44, 7.28, 7.76, 8.64, 7.1, 4.36, 0.96, -3.79, 0.0, 0.0, 0.0, -1.8, 0.0, -4.02, -4.47, -4.66, -4.66, -4.66, -10.01, -9.66, -10.01, -9.71, -9.71, -10.06, -10.01, -10.01, -10.06, -10.06, -10.36, -10.36, -10.69, -10.94, -10.65, -10.3, -10.35, -10.06, -10.65, -10.69, -10.69, -10.72, -10.43, -10.13, -10.13, -10.13, -9.8, -10.12, -9.48, -9.17, -9.17, -8.54, -8.54, -7.89, -7.24, -6.97, -6.61, -6.61, -6.9, -6.24, -6.24, -5.98, -5.85, -5.6, -5.21, -4.96, -4.5, -4.07, -3.85, -3.6, -3.6, -3.09, -3.09, -1.73, -1.73, -0.95, 0.0, 0.0, 0.0, 0.0, 0.0, 1.63, 1.52, 2.6, 4.8, 6.71, 7.15, 6.8, 7.6, 7.6, 0.0, 0.0, 6.32, 2.17, 2.69, 4.71, 7.63, 7.81, 8.05, 8.38, 7.6, 7.37, 7.07, 5.53, 4.62, 0.99, 0.0, -1.05, -4.4, -4.47, -1.27, -1.8, 0.0, -2.84, -3.72, -3.58, -3.58, -3.58, -9.66, -9.66, -9.66, -9.71, -9.71, -9.71, -9.76, -10.01, -9.72, -10.06, -10.36, -10.36, -10.69, -10.69, -10.3, -10.06, -10.06, -10.39, -10.99, -10.69, -10.69, -10.4, -10.43, -10.43, -10.13, -10.43, -9.8, -10.12, -9.48, -9.17, -9.17, -8.54, -8.54, -7.89, -7.51, -7.24, -6.58, -6.61, -6.63, -6.24, -6.24, -5.56, -5.56, -5.6, -4.92, -4.69, -4.5, -4.28, -4.07, -3.85, -3.6, -2.99, -3.09, -2.67, -1.73, -1.01, -0.89, 0.0, 0.0, 0.0, 0.0, 0.0, 0.0, 2.8, 5.81, 4.92, 6.71, 6.71, 6.71, 0.0, 0.0, 0.0, 8.05, 8.0, 2.28, 2.83, 6.01, 7.63, 8.05, 8.49, 7.89, 7.2, 6.28, 3.99, 0.96, 0.0, 0.0, -0.7, -2.95, -4.46, -4.09, -3.48, 0.0, -1.27, -3.16, -3.48, -3.48, -3.48, -9.42, -9.42, -9.66, -9.37, -9.71, -9.71, -9.42, -9.76, -9.72, -10.06, -10.36, -10.36, -10.69, -10.36, -10.06, -10.06, -10.39, -10.65, -10.69, -10.69, -10.69, -10.4, -10.43, -10.43, -10.43, -10.12, -9.8, -9.8, -9.48, -9.17, -8.83, -8.54, -8.17, -7.89, -7.51, -7.24, -6.58, -6.87, -6.2, -6.24, -6.24, -5.56, -5.56, -4.88, -5.15, -4.92, -4.24, -4.28, -3.8, -3.85, -3.33, -3.6, -2.99, -2.4, -1.84, -1.73, -0.95, -0.95, 0.0, 0.0, 0.0, 0.0, 0.0, 0.0, 0.0, 4.92, 7.15, 0.0, 0.0, 0.0, -0.0, -0.0, 0.0, 5.06, 4.0, 3.8, 6.01, 8.49, 8.49, 8.49, 8.49, 7.89, 5.69, 1.76, 0.96, 0.0, 0.89, 0.0, -2.15, -2.86, -3.6, -3.72, -3.48, -1.08, -2.68, -2.53, -2.53, -2.53, -9.42, -9.42, -9.42, -9.12, -9.71, -9.71, -9.42, -9.76, -9.72, -10.06, -9.77, -10.09, -9.77, -10.06, -9.72, -10.06, -10.39, -10.65, -10.36, -10.69, -10.69, -10.4, -10.72, -10.72, -10.43, -10.12, -10.12, -9.8, -9.17, -8.87, -8.53, -8.24, -7.87, -7.87, -7.22, -6.84, -6.84, -6.16, -6.2, -6.2, -5.52, -5.56, -5.56, -4.88, -4.88, -4.92, -4.24, -4.24, -4.28, -3.8, -3.8, -3.33, -2.99, -2.31, -2.4, -1.84, -1.73, -0.95, -0.95, -1.1, 0.0, 0.0, 0.0, 0.0, 0.0, 0.0, -0.0, 0.0, 0.0, 0.0, 0.0, -5.06, -7.15, 0.0, 0.0, 5.06, 5.69, 8.49, 8.49, 8.49, 8.49, 8.06, 2.99, 2.95, 3.06, 2.6, 4.56, 0.0, -3.04, -3.51, -3.9, -4.47, -3.16, -2.0, -2.95, -2.53, -2.53, -2.53, -9.42, -9.42, -9.42, -9.12, -9.12, -9.71, -9.42, -9.42, -9.72, -9.46, -9.72, -9.44, -9.17, -9.46, -9.46, -10.06, -10.39, -10.65, -10.36, -10.36, -10.69, -10.4, -10.4, -10.4, -10.12, -10.42, -10.09, -9.8, -9.8, -8.87, -8.58, -8.24, -8.24, -7.87, -7.22, -7.22, -6.56, -6.16, -6.16, -5.48, -5.52, -5.52, -4.84, -4.88, -4.88, -4.2, -4.45, -4.24, -4.24, -3.56, -3.8, -3.27, -2.75, -2.99, -2.31, -2.4, -1.84, -1.73, -1.01, -1.01, -1.1, 0.0, 0.0, 0.0, 0.0, 0.0, 0.0, 0.0, 0.0, 0.0, 0.0, 0.0, -5.69, -6.01, -0.0, -0.0, -0.0, 0.0, 0.0, 8.05, 8.05, 7.6, 3.0, 3.99, 4.05, 5.63, 4.47, 2.21, -2.97, -4.02, -4.34, -3.82, -3.6, -3.72, -3.48, -2.95, -2.95, -2.95, -9.08, -9.08, -9.42, -9.12, -9.12, -9.37, -9.08, -9.42, -9.42, -9.13, -9.13, -9.46, -9.17, -9.17, -9.46, -10.06, -10.39, -10.65, -10.36, -10.36, -10.36, -10.4, -10.4, -10.12, -10.12, -10.42, -10.09, -9.8, -9.48, -8.87, -8.58, -8.24, -8.24, -7.6, -7.6, -7.22, -6.56, -6.56, -5.89, -5.44, -5.48, -5.26, -5.05, -4.84, -4.84, -4.4, -4.2, -4.2, -4.24, -3.75, -3.56, -3.8, -3.09, -2.75, -2.99, -2.18, -2.4, -2.26, -1.73, -1.96, -1.01, -1.1, -1.32, -1.73, -2.26, 0.0, 0.0, 0.0, 0.0, 0.0, 0.0, -0.0, -0.0, -0.0, -0.0, 0.0, -0.0, -5.37, -8.05, 0.0, 0.0, 0.0, 1.41, 2.6, 3.17, 1.95, 3.39, 2.5, -0.0, -2.53, -2.84, -3.22, -4.74, -5.36, -4.47, -3.72, -3.72, -3.72, -9.08, -9.08, -9.08, -9.12, -8.78, -9.12, -8.82, -9.08, -8.82, -8.53, -8.85, -9.13, -9.17, -9.17, -9.46, -9.78, -10.39, -10.09, -10.09, -10.09, -10.09, -9.8, -10.12, -10.12, -10.12, -10.09, -10.09, -9.77, -9.48, -9.48, -8.58, -8.58, -8.24, -8.24, -7.6, -7.6, -6.96, -6.31, -6.31, -5.89, -5.23, -5.23, -4.8, -4.6, -4.84, -4.35, -4.16, -4.4, -4.2, -3.52, -3.75, -3.56, -3.27, -3.09, -2.75, -2.75, -2.82, -2.4, -2.26, -1.73, -1.96, -1.01, -1.18, -1.4, -2.26, -4.74, -6.26, -5.81, -0.0, 0.0, -0.0, -0.0, -0.0, -0.0, -0.0, 0.0, 0.0, -5.69, -7.2, -6.8, -7.6, -6.8, -2.4, 0.0, 1.01, 0.0, 0.0, 2.6, 2.15, -0.7, -2.0, -3.72, -5.6, -4.47, -4.47, -5.36, -5.36, -5.36, -9.08, -9.08, -9.08, -8.78, -8.78, -8.78, -8.78, -8.5, -8.82, -8.85, -8.85, -9.17, -9.17, -9.17, -9.17, -9.48, -9.77, -9.77, -9.77, -10.09, -10.09, -10.09, -9.8, -10.12, -9.8, -10.09, -10.09, -9.77, -9.48, -9.17, -8.87, -8.87, -8.24, -8.24, -7.6, -7.6, -7.33, -6.96, -6.31, -6.31, -5.67, -5.67, -5.26, -5.26, -4.6, -4.6, -4.63, -4.16, -3.97, -4.2, -3.52, -3.56, -3.56, -3.27, -3.09, -2.75, -2.6, -2.82, -2.26, -2.26, -2.51, -1.96, -2.26, -2.82, -3.4, -5.06, -5.6, -6.26, -4.43, -8.05, -5.69, -5.37, -0.0, -0.0, -5.06, -5.37, -7.6, -7.6, -7.6, -7.21, -8.05, -8.05, -7.07, -2.49, 0.0, 0.0, -1.25, 0.0, 2.53, -0.0, -2.3, -3.35, -4.66, -4.92, -5.73, -7.15, -7.15, -7.15, -8.73, -8.73, -8.73, -9.08, -8.78, -8.78, -8.52, -8.82, -8.82, -8.85, -8.85, -9.17, -9.17, -9.17, -9.17, -9.48, -9.77, -9.77, -9.77, -9.77, -9.77, -10.09, -9.8, -9.8, -9.8, -10.09, -9.77, -9.48, -9.48, -9.17, -8.87, -8.87, -8.24, -7.96, -7.96, -7.6, -7.33, -6.96, -6.96, -6.7, -6.31, -6.33, -5.92, -5.69, -5.26, -5.04, -4.84, -4.63, -4.16, -3.97, -4.2, -3.52, -3.56, -3.56, -3.09, -3.09, -3.33, -2.82, -2.82, -3.09, -2.4, -2.67, -2.09, -2.4, -3.4, -5.06, -6.36, -6.71, -6.71, -6.71, -6.71, -0.0, -0.0, -0.0, -5.06, -6.8, -7.2, -7.2, -6.8, -7.63, -7.63, -8.05, -7.6, -3.91, -2.09, 0.0, -1.33, -1.63, 0.0, -0.0, -2.2, -3.93, -5.51, -7.6, -8.49, -8.77, -8.77, -8.77, -8.38, -8.38, -8.38, -8.73, -8.49, -8.52, -8.52, -8.53, -8.82, -9.15, -8.85, -8.85, -8.56, -9.17, -9.17, -9.77, -9.77, -9.77, -9.77, -9.77, -9.77, -9.77, -9.8, -9.8, -9.8, -9.77, -9.77, -9.48, -9.17, -9.17, -8.87, -8.87, -8.56, -7.96, -7.96, -7.6, -7.33, -7.61, -6.97, -6.97, -6.58, -6.33, -6.33, -5.69, -5.69, -5.26, -5.52, -4.84, -4.84, -4.63, -3.97, -4.0, -3.75, -3.56, -3.8, -3.09, -3.33, -3.33, -3.6, -2.82, -3.09, -3.4, -2.99, -3.6, -4.14, -5.37, -5.95, -7.15, -7.15, -6.71, -7.15, 0.0, 0.0, 0.0, 0.0, -3.4, -4.22, -3.6, -3.4, -7.21, -7.81, -8.05, -7.47, -5.93, -3.4, -1.26, 0.0, -1.25, -1.63, 0.0, -5.36, -6.0, -7.2, -8.82, -8.94, -8.33, -8.33, -8.33, -8.65, -8.65, -8.38, -8.49, -8.49, -8.52, -8.52, -8.53, -8.82, -9.15, -8.85, -8.85, -8.85, -8.85, -9.17, -9.48, -9.77, -9.48, -9.48, -9.48, -9.48, -9.48, -9.5, -9.8, -9.8, -9.48, -9.48, -9.48, -9.17, -9.17, -9.17, -8.56, -8.56, -8.24, -7.96, -7.96, -7.61, -7.61, -6.97, -6.97, -6.71, -6.33, -6.33, -6.08, -6.2, -5.95, -5.52, -5.52, -5.29, -4.88, -4.2, -4.2, -4.0, -4.24, -3.56, -3.8, -3.85, -3.33, -3.6, -3.6, -3.27, -3.27, -3.6, -3.17, -3.6, -5.37, -6.4, -6.94, -7.15, -6.71, -7.15, -7.15, 0.0, 0.0, 0.0, -3.2, -2.4, -3.6, -3.4, -7.21, -7.6, -7.6, -7.21, -6.32, -3.97, -2.33, -1.26, 0.0, -1.25, -3.97, -5.06, -8.05, -8.06, -8.49, -8.49, -8.24, -8.24, -8.24, -8.65, -8.65, -8.38, -8.49, -8.49, -8.52, -8.52, -8.53, -8.82, -9.15, -8.85, -8.85, -8.85, -8.85, -9.17, -9.48, -9.77, -9.48, -9.48, -9.48, -9.48, -9.48, -9.5, -9.8, -9.8, -9.48, -9.48, -9.48, -9.17, -9.17, -9.17, -8.56, -8.56, -8.24, -7.96, -7.96, -7.61, -7.61, -6.97, -6.97, -6.71, -6.33, -6.33, -6.08, -6.2, -5.95, -5.52, -5.52, -5.29, -4.88, -4.2, -4.2, -4.0, -4.24, -3.56, -3.8, -3.85, -3.33, -3.6, -3.6, -3.27, -3.27, -3.6, -3.17, -3.6, -5.37, -6.4, -6.94, -7.15, -6.71, -7.15, -7.15, 0.0, 0.0, 0.0, -3.2, -2.4, -3.6, -3.4, -7.21, -7.6, -7.5, -7.21, -6.32, -5.06, -3.4, -2.69, -1.4, 0.0, -1.49, -1.95, -2.69, -3.8, -6.01, -7.07, -6.01, -6.01, -6.01]}]